Time,TemperatureF,DewpointF,PressureIn,WindDirection,WindDirectionDegrees,WindSpeedMPH,WindSpeedGustMPH,Humidity,HourlyPrecipIn,Conditions,Clouds,dailyrainin,SoftwareType,DateUTC
2013-01-27 00:01:00,18.5,-0.3,29.85,SSW,202,4.0,4.0,43,0.00,,,0.00,VWS V14.01,2013-01-27 06:01:00,
2013-01-27 00:03:00,18.3,-0.4,29.85,North,0,0.0,2.9,43,0.00,,,0.00,VWS V14.01,2013-01-27 06:03:00,
2013-01-27 00:05:00,18.3,-0.4,29.88,NE,45,0.0,2.9,43,0.00,,,0.00,VWS V14.01,2013-01-27 06:05:00,
2013-01-27 00:07:00,18.3,-0.4,29.88,ESE,112,6.7,6.7,43,0.00,,,0.00,VWS V14.01,2013-01-27 06:07:00,
2013-01-27 00:09:00,18.1,-0.6,29.88,SSE,158,0.0,2.2,43,0.00,,,0.00,VWS V14.01,2013-01-27 06:09:00,
2013-01-27 00:11:00,18.1,-0.6,29.88,SW,225,4.0,4.0,43,0.00,,,0.00,VWS V14.01,2013-01-27 06:11:00,
2013-01-27 00:13:00,18.1,-0.6,29.88,ESE,112,3.4,3.4,43,0.00,,,0.00,VWS V14.01,2013-01-27 06:13:00,
2013-01-27 00:15:00,18.1,-0.6,29.88,ESE,112,6.0,6.0,43,0.00,,,0.00,VWS V14.01,2013-01-27 06:15:00,
2013-01-27 00:17:00,18.1,-0.6,29.88,WSW,248,2.7,2.7,43,0.00,,,0.00,VWS V14.01,2013-01-27 06:17:00,
2013-01-27 00:19:00,18.1,-0.6,29.88,SE,135,0.0,2.2,43,0.00,,,0.00,VWS V14.01,2013-01-27 06:19:00,
2013-01-27 00:21:00,18.0,-0.8,29.88,East,90,6.0,6.0,43,0.00,,,0.00,VWS V14.01,2013-01-27 06:21:00,
2013-01-27 00:23:00,18.1,-0.6,29.88,SE,135,3.4,3.4,43,0.00,,,0.00,VWS V14.01,2013-01-27 06:23:00,
2013-01-27 00:25:00,18.0,-0.8,29.88,SE,135,3.4,3.4,43,0.00,,,0.00,VWS V14.01,2013-01-27 06:25:00,
2013-01-27 00:27:00,18.1,-0.6,29.88,SE,135,3.4,3.4,43,0.00,,,0.00,VWS V14.01,2013-01-27 06:27:00,
2013-01-27 00:29:00,18.3,-0.4,29.88,SE,135,3.4,3.4,43,0.00,,,0.00,VWS V14.01,2013-01-27 06:29:00,
2013-01-27 00:31:00,18.1,-0.6,29.88,SE,135,3.4,3.4,43,0.00,,,0.00,VWS V14.01,2013-01-27 06:31:00,
2013-01-27 00:33:00,18.1,-0.6,29.88,SE,135,3.4,3.4,43,0.00,,,0.00,VWS V14.01,2013-01-27 06:33:00,
2013-01-27 00:35:00,18.1,-0.1,29.85,SE,135,3.4,3.4,44,0.00,,,0.00,VWS V14.01,2013-01-27 06:35:00,
2013-01-27 00:37:00,18.1,-0.1,29.85,SE,135,3.4,3.4,44,0.00,,,0.00,VWS V14.01,2013-01-27 06:37:00,
2013-01-27 00:39:00,18.0,-0.3,29.85,SE,135,3.4,3.4,44,0.00,,,0.00,VWS V14.01,2013-01-27 06:39:00,
2013-01-27 00:41:00,18.1,-0.6,29.91,SE,135,3.4,3.4,43,0.00,,,0.00,VWS V14.01,2013-01-27 06:41:00,
2013-01-27 00:43:00,18.1,-0.6,29.91,SE,135,3.4,3.4,43,0.00,,,0.00,VWS V14.01,2013-01-27 06:43:00,
2013-01-27 00:45:00,18.1,-0.6,29.91,SE,135,3.4,3.4,43,0.00,,,0.00,VWS V14.01,2013-01-27 06:45:00,
2013-01-27 00:47:00,18.0,-0.8,29.91,SE,135,3.4,3.4,43,0.00,,,0.00,VWS V14.01,2013-01-27 06:47:00,
2013-01-27 00:49:00,18.0,-0.8,29.88,SE,135,3.4,3.4,43,0.00,,,0.00,VWS V14.01,2013-01-27 06:49:00,
2013-01-27 00:51:00,18.0,-0.8,29.88,SE,135,3.4,3.4,43,0.00,,,0.00,VWS V14.01,2013-01-27 06:51:00,
2013-01-27 00:53:00,18.0,-0.3,29.88,SE,135,3.4,3.4,44,0.00,,,0.00,VWS V14.01,2013-01-27 06:53:00,
2013-01-27 00:55:00,18.1,-0.1,29.88,SE,135,3.4,3.4,44,0.00,,,0.00,VWS V14.01,2013-01-27 06:55:00,
2013-01-27 00:57:00,18.1,-0.1,29.88,SE,135,3.4,3.4,44,0.00,,,0.00,VWS V14.01,2013-01-27 06:57:00,
2013-01-27 00:59:00,18.1,-0.1,29.88,SE,135,3.4,3.4,44,0.00,,,0.00,VWS V14.01,2013-01-27 06:59:00,
2013-01-27 01:01:00,18.1,-0.1,29.88,SE,135,3.4,3.4,44,0.00,,,0.00,VWS V14.01,2013-01-27 07:01:00,
2013-01-27 01:03:00,18.1,-0.1,29.88,SE,135,3.4,3.4,44,0.00,,,0.00,VWS V14.01,2013-01-27 07:03:00,
2013-01-27 01:05:00,18.1,-0.1,29.88,SE,135,3.4,3.4,44,0.00,,,0.00,VWS V14.01,2013-01-27 07:05:00,
2013-01-27 01:07:00,18.1,-0.1,29.88,SE,135,3.4,3.4,44,0.00,,,0.00,VWS V14.01,2013-01-27 07:07:00,
2013-01-27 01:09:00,18.1,-0.1,29.88,SE,135,3.4,3.4,44,0.00,,,0.00,VWS V14.01,2013-01-27 07:09:00,
2013-01-27 01:11:00,18.1,-0.1,29.88,SE,135,3.4,3.4,44,0.00,,,0.00,VWS V14.01,2013-01-27 07:11:00,
2013-01-27 01:13:00,18.1,-0.1,29.88,SE,135,3.4,3.4,44,0.00,,,0.00,VWS V14.01,2013-01-27 07:13:00,
2013-01-27 01:15:00,18.0,-0.8,29.88,SE,135,3.4,3.4,43,0.00,,,0.00,VWS V14.01,2013-01-27 07:15:00,
2013-01-27 01:17:00,18.0,-0.3,29.88,SE,135,3.4,3.4,44,0.00,,,0.00,VWS V14.01,2013-01-27 07:17:00,
2013-01-27 01:19:00,18.0,-0.8,29.88,SE,135,3.4,3.4,43,0.00,,,0.00,VWS V14.01,2013-01-27 07:19:00,
2013-01-27 01:21:00,18.0,-0.8,29.88,SE,135,3.4,3.4,43,0.00,,,0.00,VWS V14.01,2013-01-27 07:21:00,
2013-01-27 01:23:00,18.1,-0.1,29.88,SE,135,3.4,3.4,44,0.00,,,0.00,VWS V14.01,2013-01-27 07:23:00,
2013-01-27 01:25:00,18.1,-0.1,29.88,SE,135,3.4,3.4,44,0.00,,,0.00,VWS V14.01,2013-01-27 07:25:00,
2013-01-27 01:27:00,18.1,-0.1,29.88,SE,135,3.4,3.4,44,0.00,,,0.00,VWS V14.01,2013-01-27 07:27:00,
2013-01-27 01:29:00,18.1,-0.1,29.88,SE,135,3.4,3.4,44,0.00,,,0.00,VWS V14.01,2013-01-27 07:29:00,
2013-01-27 01:31:00,18.1,-0.1,29.88,SE,135,3.4,3.4,44,0.00,,,0.00,VWS V14.01,2013-01-27 07:31:00,
2013-01-27 01:33:00,18.1,-0.1,29.88,SE,135,3.4,3.4,44,0.00,,,0.00,VWS V14.01,2013-01-27 07:33:00,
2013-01-27 01:35:00,18.1,-0.1,29.85,SE,135,3.4,3.4,44,0.00,,,0.00,VWS V14.01,2013-01-27 07:35:00,
2013-01-27 01:37:00,18.1,-0.1,29.85,SE,135,3.4,3.4,44,0.00,,,0.00,VWS V14.01,2013-01-27 07:37:00,
2013-01-27 01:39:00,18.0,-0.3,29.85,SE,135,3.4,3.4,44,0.00,,,0.00,VWS V14.01,2013-01-27 07:39:00,
2013-01-27 01:41:00,17.8,-0.4,29.85,SE,135,3.4,3.4,44,0.00,,,0.00,VWS V14.01,2013-01-27 07:41:00,
2013-01-27 01:43:00,17.8,-0.4,29.85,SE,135,3.4,3.4,44,0.00,,,0.00,VWS V14.01,2013-01-27 07:43:00,
2013-01-27 01:45:00,17.8,-0.4,29.85,SE,135,3.4,3.4,44,0.00,,,0.00,VWS V14.01,2013-01-27 07:45:00,
2013-01-27 01:47:00,17.8,-0.4,29.85,SE,135,3.4,3.4,44,0.00,,,0.00,VWS V14.01,2013-01-27 07:47:00,
2013-01-27 01:49:00,17.8,-0.4,29.85,SE,135,3.4,3.4,44,0.00,,,0.00,VWS V14.01,2013-01-27 07:49:00,
2013-01-27 01:51:00,17.8,-0.4,29.85,SE,135,3.4,3.4,44,0.00,,,0.00,VWS V14.01,2013-01-27 07:51:00,
2013-01-27 01:53:00,17.8,-0.4,29.85,SE,135,3.4,3.4,44,0.00,,,0.00,VWS V14.01,2013-01-27 07:53:00,
2013-01-27 01:55:00,18.0,-0.3,29.85,SE,135,3.4,3.4,44,0.00,,,0.00,VWS V14.01,2013-01-27 07:55:00,
2013-01-27 01:57:00,18.0,-0.3,29.85,SE,135,3.4,3.4,44,0.00,,,0.00,VWS V14.01,2013-01-27 07:57:00,
2013-01-27 01:59:00,17.6,-0.6,29.82,ESE,112,4.7,4.7,44,0.00,,,0.00,VWS V14.01,2013-01-27 07:59:00,
2013-01-27 02:01:00,17.8,-0.4,29.82,NNW,338,4.0,4.0,44,0.00,,,0.00,VWS V14.01,2013-01-27 08:01:00,
2013-01-27 02:03:00,17.8,-0.4,29.82,NE,45,0.0,2.7,44,0.00,,,0.00,VWS V14.01,2013-01-27 08:03:00,
2013-01-27 02:05:00,17.8,-0.4,29.82,ESE,112,10.1,10.1,44,0.00,,,0.00,VWS V14.01,2013-01-27 08:05:00,
2013-01-27 02:07:00,18.1,-0.1,29.85,SE,135,3.4,3.4,44,0.00,,,0.00,VWS V14.01,2013-01-27 08:07:00,
2013-01-27 02:09:00,18.0,-0.3,29.85,SE,135,3.4,3.4,44,0.00,,,0.00,VWS V14.01,2013-01-27 08:09:00,
2013-01-27 02:11:00,18.0,-0.3,29.85,SE,135,3.4,3.4,44,0.00,,,0.00,VWS V14.01,2013-01-27 08:11:00,
2013-01-27 02:13:00,18.0,-0.3,29.85,SE,135,3.4,3.4,44,0.00,,,0.00,VWS V14.01,2013-01-27 08:13:00,
2013-01-27 02:15:00,17.8,-0.4,29.85,SE,135,3.4,3.4,44,0.00,,,0.00,VWS V14.01,2013-01-27 08:15:00,
2013-01-27 02:17:00,18.0,-0.3,29.85,SE,135,3.4,3.4,44,0.00,,,0.00,VWS V14.01,2013-01-27 08:17:00,
2013-01-27 02:19:00,18.0,-0.3,29.82,SE,135,3.4,3.4,44,0.00,,,0.00,VWS V14.01,2013-01-27 08:19:00,
2013-01-27 02:21:00,17.8,-0.4,29.82,SE,135,3.4,3.4,44,0.00,,,0.00,VWS V14.01,2013-01-27 08:21:00,
2013-01-27 02:23:00,18.0,-0.3,29.82,SE,135,3.4,3.4,44,0.00,,,0.00,VWS V14.01,2013-01-27 08:23:00,
2013-01-27 02:25:00,18.0,-0.3,29.82,SE,135,3.4,3.4,44,0.00,,,0.00,VWS V14.01,2013-01-27 08:25:00,
2013-01-27 02:27:00,18.0,-0.3,29.82,SE,135,3.4,3.4,44,0.00,,,0.00,VWS V14.01,2013-01-27 08:27:00,
2013-01-27 02:29:00,18.0,-0.3,29.82,SE,135,3.4,3.4,44,0.00,,,0.00,VWS V14.01,2013-01-27 08:29:00,
2013-01-27 02:31:00,17.8,-0.4,29.82,SE,135,3.4,3.4,44,0.00,,,0.00,VWS V14.01,2013-01-27 08:31:00,
2013-01-27 02:33:00,17.8,-0.4,29.82,SE,135,3.4,3.4,44,0.00,,,0.00,VWS V14.01,2013-01-27 08:33:00,
2013-01-27 02:35:00,17.8,-0.4,29.85,SE,135,3.4,3.4,44,0.00,,,0.00,VWS V14.01,2013-01-27 08:35:00,
2013-01-27 02:37:00,17.8,-0.4,29.85,SE,135,3.4,3.4,44,0.00,,,0.00,VWS V14.01,2013-01-27 08:37:00,
2013-01-27 02:39:00,18.0,-0.3,29.85,SE,135,4.7,4.7,44,0.00,,,0.00,VWS V14.01,2013-01-27 08:39:00,
2013-01-27 02:41:00,17.8,-0.4,29.85,SE,135,0.0,1.6,44,0.00,,,0.00,VWS V14.01,2013-01-27 08:41:00,
2013-01-27 02:43:00,17.8,-0.4,29.85,SSE,158,6.7,6.7,44,0.00,,,0.00,VWS V14.01,2013-01-27 08:43:00,
2013-01-27 02:45:00,17.8,-0.4,29.85,ESE,112,0.0,2.2,44,0.00,,,0.00,VWS V14.01,2013-01-27 08:45:00,
2013-01-27 02:47:00,17.6,-0.6,29.85,ESE,112,0.0,2.2,44,0.00,,,0.00,VWS V14.01,2013-01-27 08:47:00,
2013-01-27 02:49:00,17.6,-0.6,29.82,SSW,202,6.0,6.0,44,0.00,,,0.00,VWS V14.01,2013-01-27 08:49:00,
2013-01-27 02:51:00,17.8,-0.4,29.82,SSE,158,4.0,4.0,44,0.00,,,0.00,VWS V14.01,2013-01-27 08:51:00,
2013-01-27 02:53:00,17.8,-0.4,29.82,SSE,158,8.1,8.1,44,0.00,,,0.00,VWS V14.01,2013-01-27 08:53:00,
2013-01-27 02:55:00,17.8,-0.4,29.82,ESE,112,0.0,2.7,44,0.00,,,0.00,VWS V14.01,2013-01-27 08:55:00,
2013-01-27 02:57:00,17.8,-0.4,29.82,ESE,112,4.7,4.7,44,0.00,,,0.00,VWS V14.01,2013-01-27 08:57:00,
2013-01-27 02:59:00,17.6,-0.6,29.82,ESE,112,4.7,4.7,44,0.00,,,0.00,VWS V14.01,2013-01-27 08:59:00,
2013-01-27 03:01:00,17.8,-0.4,29.82,NNW,338,4.0,4.0,44,0.00,,,0.00,VWS V14.01,2013-01-27 09:01:00,
2013-01-27 03:03:00,17.8,-0.4,29.82,NE,45,0.0,2.7,44,0.00,,,0.00,VWS V14.01,2013-01-27 09:03:00,
2013-01-27 03:05:00,17.8,-0.4,29.82,ESE,112,10.1,10.1,44,0.00,,,0.00,VWS V14.01,2013-01-27 09:05:00,
2013-01-27 03:07:00,17.8,-0.4,29.82,SE,135,7.4,7.4,44,0.00,,,0.00,VWS V14.01,2013-01-27 09:07:00,
2013-01-27 03:09:00,18.0,-0.3,29.82,ENE,68,7.4,7.4,44,0.00,,,0.00,VWS V14.01,2013-01-27 09:09:00,
2013-01-27 03:11:00,17.8,-0.4,29.82,SW,225,2.7,3.4,44,0.00,,,0.00,VWS V14.01,2013-01-27 09:11:00,
2013-01-27 03:13:00,17.8,-0.4,29.82,SSE,158,11.4,11.4,44,0.00,,,0.00,VWS V14.01,2013-01-27 09:13:00,
2013-01-27 03:15:00,17.8,-0.4,29.82,SSE,158,4.7,4.7,44,0.00,,,0.00,VWS V14.01,2013-01-27 09:15:00,
2013-01-27 03:17:00,17.8,-0.4,29.82,South,180,3.4,3.8,44,0.00,,,0.00,VWS V14.01,2013-01-27 09:17:00,
2013-01-27 03:19:00,17.8,-0.4,29.82,WSW,248,0.0,3.8,44,0.00,,,0.00,VWS V14.01,2013-01-27 09:19:00,
2013-01-27 03:21:00,17.8,-0.4,29.82,ENE,68,6.0,6.0,44,0.00,,,0.00,VWS V14.01,2013-01-27 09:21:00,
2013-01-27 03:23:00,17.8,-0.4,29.82,SE,135,4.7,4.7,44,0.00,,,0.00,VWS V14.01,2013-01-27 09:23:00,
2013-01-27 03:25:00,17.8,-0.4,29.82,East,90,4.0,4.0,44,0.00,,,0.00,VWS V14.01,2013-01-27 09:25:00,
2013-01-27 03:27:00,17.8,-0.4,29.82,East,90,0.0,3.8,44,0.00,,,0.00,VWS V14.01,2013-01-27 09:27:00,
2013-01-27 03:29:00,17.8,-0.4,29.82,SSW,202,4.7,4.7,44,0.00,,,0.00,VWS V14.01,2013-01-27 09:29:00,
2013-01-27 03:31:00,17.8,-0.4,29.82,ENE,68,4.7,4.7,44,0.00,,,0.00,VWS V14.01,2013-01-27 09:31:00,
2013-01-27 03:33:00,17.8,-0.4,29.82,SSE,158,7.4,7.4,44,0.00,,,0.00,VWS V14.01,2013-01-27 09:33:00,
2013-01-27 03:35:00,17.8,-0.4,29.82,SE,135,4.7,4.7,44,0.00,,,0.00,VWS V14.01,2013-01-27 09:35:00,
2013-01-27 03:37:00,17.8,-0.4,29.82,East,90,8.1,8.1,44,0.00,,,0.00,VWS V14.01,2013-01-27 09:37:00,
2013-01-27 03:39:00,18.0,-0.3,29.82,East,90,4.7,4.7,44,0.00,,,0.00,VWS V14.01,2013-01-27 09:39:00,
2013-01-27 03:41:00,18.1,-0.1,29.82,ESE,112,3.4,3.8,44,0.00,,,0.00,VWS V14.01,2013-01-27 09:41:00,
2013-01-27 03:43:00,18.0,-0.3,29.82,ESE,112,9.4,9.4,44,0.00,,,0.00,VWS V14.01,2013-01-27 09:43:00,
2013-01-27 03:45:00,18.1,-0.1,29.82,ESE,112,6.7,6.7,44,0.00,,,0.00,VWS V14.01,2013-01-27 09:45:00,
2013-01-27 03:47:00,18.1,-0.1,29.82,ESE,112,6.7,6.7,44,0.00,,,0.00,VWS V14.01,2013-01-27 09:47:00,
2013-01-27 03:49:00,18.1,-0.1,29.82,ESE,112,6.7,6.7,44,0.00,,,0.00,VWS V14.01,2013-01-27 09:49:00,
2013-01-27 03:51:00,18.1,-0.1,29.82,ESE,112,6.7,6.7,44,0.00,,,0.00,VWS V14.01,2013-01-27 09:51:00,
2013-01-27 03:53:00,18.1,-0.1,29.82,ESE,112,6.7,6.7,44,0.00,,,0.00,VWS V14.01,2013-01-27 09:53:00,
2013-01-27 03:55:00,18.1,-0.1,29.82,ESE,112,6.7,6.7,44,0.00,,,0.00,VWS V14.01,2013-01-27 09:55:00,
2013-01-27 03:57:00,18.0,-0.3,29.82,SE,135,6.0,6.0,44,0.00,,,0.00,VWS V14.01,2013-01-27 09:57:00,
2013-01-27 03:59:00,18.0,-0.3,29.82,SSW,202,6.7,6.7,44,0.00,,,0.00,VWS V14.01,2013-01-27 09:59:00,
2013-01-27 04:01:00,18.0,-0.3,29.82,SSW,202,6.7,6.7,44,0.00,,,0.00,VWS V14.01,2013-01-27 10:01:00,
2013-01-27 04:03:00,18.0,-0.3,29.82,SSW,202,6.7,6.7,44,0.00,,,0.00,VWS V14.01,2013-01-27 10:03:00,
2013-01-27 04:05:00,18.0,-0.3,29.82,East,90,12.8,12.8,44,0.00,,,0.00,VWS V14.01,2013-01-27 10:05:00,
2013-01-27 04:07:00,18.0,-0.3,29.82,SE,135,7.4,7.4,44,0.00,,,0.00,VWS V14.01,2013-01-27 10:07:00,
2013-01-27 04:09:00,18.0,-0.3,29.82,SE,135,7.4,7.4,44,0.00,,,0.00,VWS V14.01,2013-01-27 10:09:00,
2013-01-27 04:11:00,17.8,-0.4,29.82,SE,135,7.4,7.4,44,0.00,,,0.00,VWS V14.01,2013-01-27 10:11:00,
2013-01-27 04:13:00,17.8,-0.4,29.82,SE,135,7.4,7.4,44,0.00,,,0.00,VWS V14.01,2013-01-27 10:13:00,
2013-01-27 04:15:00,18.0,-0.3,29.82,SE,135,7.4,7.4,44,0.00,,,0.00,VWS V14.01,2013-01-27 10:15:00,
2013-01-27 04:17:00,17.8,-0.4,29.82,SE,135,7.4,7.4,44,0.00,,,0.00,VWS V14.01,2013-01-27 10:17:00,
2013-01-27 04:19:00,17.8,-0.4,29.82,SE,135,7.4,7.4,44,0.00,,,0.00,VWS V14.01,2013-01-27 10:19:00,
2013-01-27 04:21:00,17.8,-0.4,29.82,SE,135,7.4,7.4,44,0.00,,,0.00,VWS V14.01,2013-01-27 10:21:00,
2013-01-27 04:23:00,17.8,-0.4,29.82,SE,135,7.4,7.4,44,0.00,,,0.00,VWS V14.01,2013-01-27 10:23:00,
2013-01-27 04:25:00,18.0,-0.3,29.82,SE,135,7.4,7.4,44,0.00,,,0.00,VWS V14.01,2013-01-27 10:25:00,
2013-01-27 04:27:00,18.0,-0.3,29.82,SE,135,7.4,7.4,44,0.00,,,0.00,VWS V14.01,2013-01-27 10:27:00,
2013-01-27 04:29:00,18.1,-0.1,29.82,SE,135,7.4,7.4,44,0.00,,,0.00,VWS V14.01,2013-01-27 10:29:00,
2013-01-27 04:31:00,18.1,-0.1,29.82,SE,135,7.4,7.4,44,0.00,,,0.00,VWS V14.01,2013-01-27 10:31:00,
2013-01-27 04:33:00,18.1,-0.1,29.82,SE,135,7.4,7.4,44,0.00,,,0.00,VWS V14.01,2013-01-27 10:33:00,
2013-01-27 04:35:00,18.1,-0.1,29.82,SE,135,7.4,7.4,44,0.00,,,0.00,VWS V14.01,2013-01-27 10:35:00,
2013-01-27 04:37:00,18.1,-0.1,29.82,SE,135,7.4,7.4,44,0.00,,,0.00,VWS V14.01,2013-01-27 10:37:00,
2013-01-27 04:39:00,18.1,-0.1,29.82,SE,135,7.4,7.4,44,0.00,,,0.00,VWS V14.01,2013-01-27 10:39:00,
2013-01-27 04:43:00,18.0,-0.3,29.82,SE,135,7.4,7.4,44,0.00,,,0.00,VWS V14.01,2013-01-27 10:43:00,
2013-01-27 04:45:00,18.1,-0.1,29.82,SE,135,7.4,7.4,44,0.00,,,0.00,VWS V14.01,2013-01-27 10:45:00,
2013-01-27 04:47:00,18.1,-0.1,29.82,SE,135,7.4,7.4,44,0.00,,,0.00,VWS V14.01,2013-01-27 10:47:00,
2013-01-27 04:49:00,18.1,-0.1,29.82,SE,135,7.4,7.4,44,0.00,,,0.00,VWS V14.01,2013-01-27 10:49:00,
2013-01-27 04:51:00,18.1,-0.1,29.82,SE,135,7.4,7.4,44,0.00,,,0.00,VWS V14.01,2013-01-27 10:51:00,
2013-01-27 04:53:00,18.1,-0.1,29.82,SE,135,7.4,7.4,44,0.00,,,0.00,VWS V14.01,2013-01-27 10:53:00,
2013-01-27 04:55:00,18.1,-0.1,29.82,SE,135,7.4,7.4,44,0.00,,,0.00,VWS V14.01,2013-01-27 10:55:00,
2013-01-27 04:57:00,18.1,-0.1,29.82,SE,135,7.4,7.4,44,0.00,,,0.00,VWS V14.01,2013-01-27 10:57:00,
2013-01-27 04:59:00,18.0,-0.3,29.82,SE,135,7.4,7.4,44,0.00,,,0.00,VWS V14.01,2013-01-27 10:59:00,
2013-01-27 05:01:00,18.0,-0.3,29.82,SE,135,7.4,7.4,44,0.00,,,0.00,VWS V14.01,2013-01-27 11:01:00,
2013-01-27 05:03:00,18.1,-0.1,29.82,SE,135,7.4,7.4,44,0.00,,,0.00,VWS V14.01,2013-01-27 11:03:00,
2013-01-27 05:05:00,18.1,-0.1,29.79,SE,135,7.4,7.4,44,0.00,,,0.00,VWS V14.01,2013-01-27 11:05:00,
2013-01-27 05:07:00,18.1,-0.1,29.79,SE,135,7.4,7.4,44,0.00,,,0.00,VWS V14.01,2013-01-27 11:07:00,
2013-01-27 05:09:00,18.1,-0.1,29.79,SE,135,7.4,7.4,44,0.00,,,0.00,VWS V14.01,2013-01-27 11:09:00,
2013-01-27 05:11:00,18.1,-0.1,29.79,SE,135,7.4,7.4,44,0.00,,,0.00,VWS V14.01,2013-01-27 11:11:00,
2013-01-27 05:13:00,18.1,-0.1,29.79,SE,135,7.4,7.4,44,0.00,,,0.00,VWS V14.01,2013-01-27 11:13:00,
2013-01-27 05:15:00,18.1,-0.1,29.79,SE,135,7.4,7.4,44,0.00,,,0.00,VWS V14.01,2013-01-27 11:15:00,
2013-01-27 05:17:00,18.1,-0.1,29.79,SE,135,7.4,7.4,44,0.00,,,0.00,VWS V14.01,2013-01-27 11:17:00,
2013-01-27 05:19:00,18.1,-0.1,29.79,SE,135,7.4,7.4,44,0.00,,,0.00,VWS V14.01,2013-01-27 11:19:00,
2013-01-27 05:21:00,18.1,-0.1,29.79,SE,135,7.4,7.4,44,0.00,,,0.00,VWS V14.01,2013-01-27 11:21:00,
2013-01-27 05:23:00,18.1,-0.1,29.79,SE,135,7.4,7.4,44,0.00,,,0.00,VWS V14.01,2013-01-27 11:23:00,
2013-01-27 05:25:00,18.3,0.1,29.79,SSE,158,6.7,6.7,44,0.00,,,0.00,VWS V14.01,2013-01-27 11:25:00,
2013-01-27 05:27:00,18.3,0.6,29.79,ESE,112,4.0,4.0,45,0.00,,,0.00,VWS V14.01,2013-01-27 11:27:00,
2013-01-27 05:29:00,18.3,0.6,29.79,ESE,112,4.0,4.0,45,0.00,,,0.00,VWS V14.01,2013-01-27 11:29:00,
2013-01-27 05:31:00,18.3,0.6,29.79,ESE,112,4.0,4.0,45,0.00,,,0.00,VWS V14.01,2013-01-27 11:31:00,
2013-01-27 05:33:00,18.3,0.6,29.79,ESE,112,4.0,4.0,45,0.00,,,0.00,VWS V14.01,2013-01-27 11:33:00,
2013-01-27 05:35:00,18.3,0.6,29.79,ESE,112,4.0,4.0,45,0.00,,,0.00,VWS V14.01,2013-01-27 11:35:00,
2013-01-27 05:37:00,18.3,0.6,29.79,ESE,112,4.0,4.0,45,0.00,,,0.00,VWS V14.01,2013-01-27 11:37:00,
2013-01-27 05:39:00,18.3,0.6,29.79,ESE,112,4.0,4.0,45,0.00,,,0.00,VWS V14.01,2013-01-27 11:39:00,
2013-01-27 05:41:00,18.1,0.4,29.76,ENE,68,8.7,8.7,45,0.00,,,0.00,VWS V14.01,2013-01-27 11:41:00,
2013-01-27 05:43:00,18.5,0.7,29.79,ESE,112,4.0,4.0,45,0.00,,,0.00,VWS V14.01,2013-01-27 11:43:00,
2013-01-27 05:45:00,18.5,0.7,29.79,ESE,112,4.0,4.0,45,0.00,,,0.00,VWS V14.01,2013-01-27 11:45:00,
2013-01-27 05:47:00,18.3,0.6,29.79,ESE,112,4.0,4.0,45,0.00,,,0.00,VWS V14.01,2013-01-27 11:47:00,
2013-01-27 05:49:00,18.3,0.6,29.79,ESE,112,4.0,4.0,45,0.00,,,0.00,VWS V14.01,2013-01-27 11:49:00,
2013-01-27 05:51:00,18.3,0.6,29.79,ESE,112,0.0,2.5,45,0.00,,,0.00,VWS V14.01,2013-01-27 11:51:00,
2013-01-27 05:53:00,18.3,0.6,29.79,SSE,158,8.7,8.7,45,0.00,,,0.00,VWS V14.01,2013-01-27 11:53:00,
2013-01-27 05:55:00,18.5,0.7,29.79,SSE,158,8.7,8.7,45,0.00,,,0.00,VWS V14.01,2013-01-27 11:55:00,
2013-01-27 05:57:00,18.5,0.7,29.79,SSE,158,8.7,8.7,45,0.00,,,0.00,VWS V14.01,2013-01-27 11:57:00,
2013-01-27 05:59:00,18.5,0.7,29.79,SSE,158,8.7,8.7,45,0.00,,,0.00,VWS V14.01,2013-01-27 11:59:00,
2013-01-27 06:01:00,18.5,0.7,29.79,ESE,112,4.7,4.7,45,0.00,,,0.00,VWS V14.01,2013-01-27 12:01:00,
2013-01-27 06:03:00,18.5,0.7,29.79,ESE,112,0.0,2.9,45,0.00,,,0.00,VWS V14.01,2013-01-27 12:03:00,
2013-01-27 06:05:00,18.3,0.6,29.79,SSE,158,4.0,4.0,45,0.00,,,0.00,VWS V14.01,2013-01-27 12:05:00,
2013-01-27 06:07:00,18.3,0.6,29.79,SSE,158,4.0,4.0,45,0.00,,,0.00,VWS V14.01,2013-01-27 12:07:00,
2013-01-27 06:09:00,18.3,0.6,29.79,SSE,158,4.0,4.0,45,0.00,,,0.00,VWS V14.01,2013-01-27 12:09:00,
2013-01-27 06:11:00,18.5,0.7,29.79,SE,135,6.0,6.0,45,0.00,,,0.00,VWS V14.01,2013-01-27 12:11:00,
2013-01-27 06:13:00,18.3,0.6,29.79,SE,135,6.0,6.0,45,0.00,,,0.00,VWS V14.01,2013-01-27 12:13:00,
2013-01-27 06:15:00,18.3,0.6,29.79,SE,135,0.0,2.9,45,0.00,,,0.00,VWS V14.01,2013-01-27 12:15:00,
2013-01-27 06:17:00,18.3,0.6,29.79,SSE,158,6.7,6.7,45,0.00,,,0.00,VWS V14.01,2013-01-27 12:17:00,
2013-01-27 06:19:00,18.3,0.6,29.79,ESE,112,6.7,6.7,45,0.00,,,0.00,VWS V14.01,2013-01-27 12:19:00,
2013-01-27 06:21:00,18.3,0.6,29.79,East,90,8.7,8.7,45,0.00,,,0.00,VWS V14.01,2013-01-27 12:21:00,
2013-01-27 06:23:00,18.3,0.6,29.79,East,90,8.7,8.7,45,0.00,,,0.00,VWS V14.01,2013-01-27 12:23:00,
2013-01-27 06:25:00,18.3,0.6,29.79,SSE,158,6.7,6.7,45,0.00,,,0.00,VWS V14.01,2013-01-27 12:25:00,
2013-01-27 06:27:00,18.3,0.6,29.79,SSE,158,6.7,6.7,45,0.00,,,0.00,VWS V14.01,2013-01-27 12:27:00,
2013-01-27 06:29:00,18.3,0.6,29.79,SE,135,4.0,4.0,45,0.00,,,0.00,VWS V14.01,2013-01-27 12:29:00,
2013-01-27 06:31:00,18.1,0.4,29.79,ESE,112,10.1,10.1,45,0.00,,,0.00,VWS V14.01,2013-01-27 12:31:00,
2013-01-27 06:33:00,18.1,0.4,29.79,ESE,112,10.1,10.1,45,0.00,,,0.00,VWS V14.01,2013-01-27 12:33:00,
2013-01-27 06:35:00,18.1,0.4,29.76,ESE,112,3.4,3.4,45,0.00,,,0.00,VWS V14.01,2013-01-27 12:35:00,
2013-01-27 06:37:00,18.1,0.4,29.76,ESE,112,3.4,3.4,45,0.00,,,0.00,VWS V14.01,2013-01-27 12:37:00,
2013-01-27 06:39:00,18.1,0.4,29.76,ENE,68,8.7,8.7,45,0.00,,,0.00,VWS V14.01,2013-01-27 12:39:00,
2013-01-27 06:41:00,18.1,0.4,29.76,ENE,68,8.7,8.7,45,0.00,,,0.00,VWS V14.01,2013-01-27 12:41:00,
2013-01-27 06:43:00,18.1,0.4,29.76,ESE,112,2.7,3.4,45,0.00,,,0.00,VWS V14.01,2013-01-27 12:43:00,
2013-01-27 06:45:00,18.1,0.4,29.76,ESE,112,2.7,3.4,45,0.00,,,0.00,VWS V14.01,2013-01-27 12:45:00,
2013-01-27 06:47:00,18.1,0.4,29.76,ESE,112,2.7,3.4,45,0.00,,,0.00,VWS V14.01,2013-01-27 12:47:00,
2013-01-27 06:49:00,18.1,0.4,29.76,ESE,112,0.0,3.4,45,0.00,,,0.00,VWS V14.01,2013-01-27 12:49:00,
2013-01-27 06:51:00,18.1,0.4,29.76,ESE,112,0.0,3.4,45,0.00,,,0.00,VWS V14.01,2013-01-27 12:51:00,
2013-01-27 06:53:00,18.1,0.4,29.76,ENE,68,0.0,3.4,45,0.00,,,0.00,VWS V14.01,2013-01-27 12:53:00,
2013-01-27 06:55:00,18.1,0.4,29.76,SSE,158,4.0,4.0,45,0.00,,,0.00,VWS V14.01,2013-01-27 12:55:00,
2013-01-27 06:57:00,18.1,0.4,29.76,SSE,158,4.0,4.0,45,0.00,,,0.00,VWS V14.01,2013-01-27 12:57:00,
2013-01-27 06:59:00,18.1,0.4,29.76,ESE,112,0.0,3.4,45,0.00,,,0.00,VWS V14.01,2013-01-27 12:59:00,
2013-01-27 07:01:00,18.1,0.4,29.76,ESE,112,6.7,6.7,45,0.00,,,0.00,VWS V14.01,2013-01-27 13:01:00,
2013-01-27 07:03:00,18.1,0.4,29.76,SE,135,7.4,7.4,45,0.00,,,0.00,VWS V14.01,2013-01-27 13:03:00,
2013-01-27 07:05:00,18.1,0.4,29.76,ENE,68,7.4,7.4,45,0.00,,,0.00,VWS V14.01,2013-01-27 13:05:00,
2013-01-27 07:07:00,18.1,0.4,29.76,SSE,158,4.7,4.7,45,0.00,,,0.00,VWS V14.01,2013-01-27 13:07:00,
2013-01-27 07:09:00,18.1,0.4,29.76,ENE,68,4.7,4.7,45,0.00,,,0.00,VWS V14.01,2013-01-27 13:09:00,
2013-01-27 07:11:00,18.0,0.2,29.76,East,90,0.0,3.4,45,0.00,,,0.00,VWS V14.01,2013-01-27 13:11:00,
2013-01-27 07:13:00,18.1,0.4,29.76,East,90,4.0,4.0,45,0.00,,,0.00,VWS V14.01,2013-01-27 13:13:00,
2013-01-27 07:15:00,18.0,0.2,29.76,SE,135,0.0,2.9,45,0.00,,,0.00,VWS V14.01,2013-01-27 13:15:00,
2013-01-27 07:17:00,18.0,0.2,29.76,SSW,202,4.7,4.7,45,0.00,,,0.00,VWS V14.01,2013-01-27 13:17:00,
2013-01-27 07:19:00,18.0,0.2,29.76,ENE,68,4.7,4.7,45,0.00,,,0.00,VWS V14.01,2013-01-27 13:19:00,
2013-01-27 07:21:00,18.0,0.2,29.76,ESE,112,4.7,4.7,45,0.00,,,0.00,VWS V14.01,2013-01-27 13:21:00,
2013-01-27 07:23:00,18.0,0.2,29.76,SE,135,4.7,4.7,45,0.00,,,0.00,VWS V14.01,2013-01-27 13:23:00,
2013-01-27 07:25:00,18.1,0.4,29.76,ESE,112,6.0,6.0,45,0.00,,,0.00,VWS V14.01,2013-01-27 13:25:00,
2013-01-27 07:27:00,18.1,0.4,29.76,ESE,112,6.0,6.0,45,0.00,,,0.00,VWS V14.01,2013-01-27 13:27:00,
2013-01-27 07:29:00,18.1,0.4,29.76,WSW,248,4.7,4.7,45,0.00,,,0.00,VWS V14.01,2013-01-27 13:29:00,
2013-01-27 07:31:00,18.1,0.9,29.76,South,180,3.4,3.4,46,0.00,,,0.00,VWS V14.01,2013-01-27 13:31:00,
2013-01-27 07:33:00,18.1,0.9,29.76,ESE,112,2.7,2.7,46,0.00,,,0.00,VWS V14.01,2013-01-27 13:33:00,
2013-01-27 07:35:00,18.1,0.9,29.76,SE,135,2.7,2.7,46,0.00,,,0.00,VWS V14.01,2013-01-27 13:35:00,
2013-01-27 07:37:00,20.1,2.2,29.76,SE,135,2.7,2.9,45,0.00,,,0.00,VWS V14.01,2013-01-27 13:37:00,
2013-01-27 07:39:00,18.3,1.0,29.76,WSW,248,0.0,2.5,46,0.00,,,0.00,VWS V14.01,2013-01-27 13:39:00,
2013-01-27 07:41:00,18.3,1.0,29.76,SSE,158,6.7,6.7,46,0.00,,,0.00,VWS V14.01,2013-01-27 13:41:00,
2013-01-27 07:43:00,18.3,1.0,29.76,WSW,248,0.0,2.5,46,0.00,,,0.00,VWS V14.01,2013-01-27 13:43:00,
2013-01-27 07:45:00,18.3,1.0,29.76,WSW,248,7.4,7.4,46,0.00,,,0.00,VWS V14.01,2013-01-27 13:45:00,
2013-01-27 07:47:00,18.3,1.0,29.76,South,180,4.0,4.0,46,0.00,,,0.00,VWS V14.01,2013-01-27 13:47:00,
2013-01-27 07:49:00,18.3,1.0,29.74,SSW,202,2.7,2.7,46,0.00,,,0.00,VWS V14.01,2013-01-27 13:49:00,
2013-01-27 07:51:00,18.3,1.0,29.74,NNW,338,0.0,2.5,46,0.00,,,0.00,VWS V14.01,2013-01-27 13:51:00,
2013-01-27 07:53:00,18.5,1.2,29.74,SSE,158,9.4,9.4,46,0.00,,,0.00,VWS V14.01,2013-01-27 13:53:00,
2013-01-27 07:55:00,18.5,1.2,29.74,ESE,112,2.7,3.1,46,0.00,,,0.00,VWS V14.01,2013-01-27 13:55:00,
2013-01-27 07:57:00,18.5,1.2,29.74,SE,135,4.7,4.7,46,0.00,,,0.00,VWS V14.01,2013-01-27 13:57:00,
2013-01-27 07:59:00,18.7,1.4,29.74,SSW,202,6.0,6.0,46,0.00,,,0.00,VWS V14.01,2013-01-27 13:59:00,
2013-01-27 08:01:00,18.9,1.5,29.74,ESE,112,0.0,3.1,46,0.00,,,0.00,VWS V14.01,2013-01-27 14:01:00,
2013-01-27 08:03:00,19.0,1.7,29.74,NE,45,0.0,3.1,46,0.00,,,0.00,VWS V14.01,2013-01-27 14:03:00,
2013-01-27 08:05:00,19.2,1.8,29.76,SE,135,6.7,6.7,46,0.00,,,0.00,VWS V14.01,2013-01-27 14:05:00,
2013-01-27 08:07:00,19.4,2.0,29.76,SSE,158,8.7,8.7,46,0.00,,,0.00,VWS V14.01,2013-01-27 14:07:00,
2013-01-27 08:09:00,19.4,2.0,29.76,SE,135,0.0,3.1,46,0.00,,,0.00,VWS V14.01,2013-01-27 14:09:00,
2013-01-27 08:11:00,19.4,2.0,29.76,ESE,112,0.0,3.1,46,0.00,,,0.00,VWS V14.01,2013-01-27 14:11:00,
2013-01-27 08:13:00,19.4,2.0,29.76,South,180,0.0,3.1,46,0.00,,,0.00,VWS V14.01,2013-01-27 14:13:00,
2013-01-27 08:15:00,19.4,2.0,29.76,SE,135,2.7,3.1,46,0.00,,,0.00,VWS V14.01,2013-01-27 14:15:00,
2013-01-27 08:17:00,19.4,2.0,29.76,SE,135,0.0,3.1,46,0.00,,,0.00,VWS V14.01,2013-01-27 14:17:00,
2013-01-27 08:19:00,19.6,1.7,29.74,ESE,112,0.0,3.1,45,0.00,,,0.00,VWS V14.01,2013-01-27 14:19:00,
2013-01-27 08:21:00,19.6,1.7,29.74,SSE,158,3.4,3.4,45,0.00,,,0.00,VWS V14.01,2013-01-27 14:21:00,
2013-01-27 08:23:00,19.6,1.7,29.74,SSE,158,0.0,3.1,45,0.00,,,0.00,VWS V14.01,2013-01-27 14:23:00,
2013-01-27 08:25:00,19.6,1.7,29.74,ESE,112,6.0,6.0,45,0.00,,,0.00,VWS V14.01,2013-01-27 14:25:00,
2013-01-27 08:27:00,19.6,1.7,29.74,SSE,158,0.0,3.1,45,0.00,,,0.00,VWS V14.01,2013-01-27 14:27:00,
2013-01-27 08:29:00,19.8,1.9,29.74,SSW,202,4.7,4.7,45,0.00,,,0.00,VWS V14.01,2013-01-27 14:29:00,
2013-01-27 08:31:00,19.8,1.9,29.74,SSE,158,0.0,3.1,45,0.00,,,0.00,VWS V14.01,2013-01-27 14:31:00,
2013-01-27 08:33:00,19.9,2.0,29.74,SE,135,4.0,4.0,45,0.00,,,0.00,VWS V14.01,2013-01-27 14:33:00,
2013-01-27 08:35:00,20.1,2.2,29.76,South,180,4.0,4.0,45,0.00,,,0.00,VWS V14.01,2013-01-27 14:35:00,
2013-01-27 08:37:00,20.1,2.2,29.76,SE,135,2.7,2.9,45,0.00,,,0.00,VWS V14.01,2013-01-27 14:37:00,
2013-01-27 08:39:00,20.3,2.4,29.76,SSE,158,4.7,4.7,45,0.00,,,0.00,VWS V14.01,2013-01-27 14:39:00,
2013-01-27 08:41:00,20.3,2.4,29.76,East,90,8.1,8.1,45,0.00,,,0.00,VWS V14.01,2013-01-27 14:41:00,
2013-01-27 08:43:00,20.3,2.4,29.76,ENE,68,6.0,6.0,45,0.00,,,0.00,VWS V14.01,2013-01-27 14:43:00,
2013-01-27 08:45:00,20.5,2.5,29.76,SSE,158,6.7,6.7,45,0.00,,,0.00,VWS V14.01,2013-01-27 14:45:00,
2013-01-27 08:47:00,20.7,2.7,29.76,ESE,112,6.0,6.0,45,0.00,,,0.00,VWS V14.01,2013-01-27 14:47:00,
2013-01-27 08:49:00,20.8,2.9,29.76,ESE,112,8.1,8.1,45,0.00,,,0.00,VWS V14.01,2013-01-27 14:49:00,
2013-01-27 08:51:00,21.0,3.0,29.76,ESE,112,2.7,2.7,45,0.00,,,0.00,VWS V14.01,2013-01-27 14:51:00,
2013-01-27 08:53:00,21.0,3.0,29.76,ESE,112,6.7,6.7,45,0.00,,,0.00,VWS V14.01,2013-01-27 14:53:00,
2013-01-27 08:55:00,21.2,3.2,29.76,ESE,112,8.7,8.7,45,0.00,,,0.00,VWS V14.01,2013-01-27 14:55:00,
2013-01-27 08:57:00,21.4,2.9,29.76,ESE,112,4.0,4.0,44,0.00,,,0.00,VWS V14.01,2013-01-27 14:57:00,
2013-01-27 08:59:00,21.4,2.9,29.76,ESE,112,11.4,11.4,44,0.00,,,0.00,VWS V14.01,2013-01-27 14:59:00,
2013-01-27 09:01:00,21.6,3.0,29.76,WSW,248,0.0,3.8,44,0.00,,,0.00,VWS V14.01,2013-01-27 15:01:00,
2013-01-27 09:03:00,21.7,3.2,29.76,ESE,112,6.7,6.7,44,0.00,,,0.00,VWS V14.01,2013-01-27 15:03:00,
2013-01-27 09:05:00,21.9,3.4,29.74,SE,135,0.0,3.8,44,0.00,,,0.00,VWS V14.01,2013-01-27 15:05:00,
2013-01-27 09:07:00,22.1,3.5,29.74,SSE,158,6.7,6.7,44,0.00,,,0.00,VWS V14.01,2013-01-27 15:07:00,
2013-01-27 09:09:00,22.3,3.7,29.74,WSW,248,0.0,3.8,44,0.00,,,0.00,VWS V14.01,2013-01-27 15:09:00,
2013-01-27 09:11:00,22.3,3.7,29.74,NE,45,4.0,4.0,44,0.00,,,0.00,VWS V14.01,2013-01-27 15:11:00,
2013-01-27 09:13:00,22.6,4.0,29.74,SE,135,3.4,3.8,44,0.00,,,0.00,VWS V14.01,2013-01-27 15:13:00,
2013-01-27 09:15:00,22.6,4.0,29.74,SE,135,2.7,3.8,44,0.00,,,0.00,VWS V14.01,2013-01-27 15:15:00,
2013-01-27 09:17:00,22.8,4.2,29.74,NE,45,7.4,7.4,44,0.00,,,0.00,VWS V14.01,2013-01-27 15:17:00,
2013-01-27 09:19:00,22.8,4.2,29.79,SSE,158,4.7,4.7,44,0.00,,,0.00,VWS V14.01,2013-01-27 15:19:00,
2013-01-27 09:21:00,23.0,4.3,29.79,WSW,248,4.0,4.0,44,0.00,,,0.00,VWS V14.01,2013-01-27 15:21:00,
2013-01-27 09:23:00,23.0,4.3,29.79,ENE,68,6.0,6.0,44,0.00,,,0.00,VWS V14.01,2013-01-27 15:23:00,
2013-01-27 09:25:00,23.0,4.3,29.79,NNW,338,6.0,6.0,44,0.00,,,0.00,VWS V14.01,2013-01-27 15:25:00,
2013-01-27 09:27:00,23.2,4.0,29.79,ENE,68,9.4,9.4,43,0.00,,,0.00,VWS V14.01,2013-01-27 15:27:00,
2013-01-27 09:29:00,23.4,4.2,29.79,East,90,8.1,8.1,43,0.00,,,0.00,VWS V14.01,2013-01-27 15:29:00,
2013-01-27 09:31:00,23.5,4.3,29.79,ESE,112,0.0,3.8,43,0.00,,,0.00,VWS V14.01,2013-01-27 15:31:00,
2013-01-27 09:33:00,23.5,4.3,29.79,SE,135,0.0,3.8,43,0.00,,,0.00,VWS V14.01,2013-01-27 15:33:00,
2013-01-27 09:35:00,23.7,4.5,29.76,ESE,112,2.7,3.8,43,0.00,,,0.00,VWS V14.01,2013-01-27 15:35:00,
2013-01-27 09:37:00,23.9,4.7,29.76,SSE,158,4.7,4.7,43,0.00,,,0.00,VWS V14.01,2013-01-27 15:37:00,
2013-01-27 09:39:00,23.9,4.7,29.76,WNW,292,0.0,3.1,43,0.00,,,0.00,VWS V14.01,2013-01-27 15:39:00,
2013-01-27 09:41:00,23.9,4.7,29.76,SSW,202,4.0,4.0,43,0.00,,,0.00,VWS V14.01,2013-01-27 15:41:00,
2013-01-27 09:43:00,24.1,4.8,29.76,ESE,112,12.1,12.1,43,0.00,,,0.00,VWS V14.01,2013-01-27 15:43:00,
2013-01-27 09:45:00,24.3,5.0,29.76,WSW,248,3.4,4.0,43,0.00,,,0.00,VWS V14.01,2013-01-27 15:45:00,
2013-01-27 09:47:00,24.3,5.0,29.76,SE,135,0.0,4.0,43,0.00,,,0.00,VWS V14.01,2013-01-27 15:47:00,
2013-01-27 09:49:00,24.4,5.2,29.76,SE,135,0.0,4.0,43,0.00,,,0.00,VWS V14.01,2013-01-27 15:49:00,
2013-01-27 09:51:00,29.8,9.0,29.76,South,180,4.0,4.0,41,0.00,,,0.00,VWS V14.01,2013-01-27 15:51:00,
2013-01-27 09:53:00,24.6,5.3,29.76,SW,225,4.7,4.7,43,0.00,,,0.00,VWS V14.01,2013-01-27 15:53:00,
2013-01-27 09:55:00,24.6,5.3,29.76,ENE,68,8.1,8.1,43,0.00,,,0.00,VWS V14.01,2013-01-27 15:55:00,
2013-01-27 09:57:00,24.8,5.5,29.76,SSW,202,4.7,4.7,43,0.00,,,0.00,VWS V14.01,2013-01-27 15:57:00,
2013-01-27 09:59:00,24.8,5.5,29.76,SW,225,4.0,4.0,43,0.00,,,0.00,VWS V14.01,2013-01-27 15:59:00,
2013-01-27 10:01:00,25.0,5.1,29.76,SSE,158,4.0,4.0,42,0.00,,,0.00,VWS V14.01,2013-01-27 16:01:00,
2013-01-27 10:03:00,25.2,5.3,29.76,ESE,112,6.7,6.7,42,0.00,,,0.00,VWS V14.01,2013-01-27 16:03:00,
2013-01-27 10:05:00,25.3,5.5,29.76,SE,135,4.7,4.7,42,0.00,,,0.00,VWS V14.01,2013-01-27 16:05:00,
2013-01-27 10:07:00,25.3,5.5,29.76,ESE,112,8.7,8.7,42,0.00,,,0.00,VWS V14.01,2013-01-27 16:07:00,
2013-01-27 10:09:00,25.5,5.6,29.76,NE,45,7.4,7.4,42,0.00,,,0.00,VWS V14.01,2013-01-27 16:09:00,
2013-01-27 10:11:00,25.5,5.6,29.76,SE,135,10.1,10.1,42,0.00,,,0.00,VWS V14.01,2013-01-27 16:11:00,
2013-01-27 10:13:00,25.7,5.8,29.76,ESE,112,4.0,4.0,42,0.00,,,0.00,VWS V14.01,2013-01-27 16:13:00,
2013-01-27 10:15:00,25.9,6.0,29.76,NNE,22,2.7,4.0,42,0.00,,,0.00,VWS V14.01,2013-01-27 16:15:00,
2013-01-27 10:17:00,25.9,6.0,29.76,NNE,22,2.7,4.0,42,0.00,,,0.00,VWS V14.01,2013-01-27 16:17:00,
2013-01-27 10:19:00,25.9,6.0,29.76,SW,225,10.1,10.1,42,0.00,,,0.00,VWS V14.01,2013-01-27 16:19:00,
2013-01-27 10:21:00,26.1,6.1,29.76,ESE,112,3.4,4.0,42,0.00,,,0.00,VWS V14.01,2013-01-27 16:21:00,
2013-01-27 10:23:00,26.2,6.3,29.76,ESE,112,6.7,6.7,42,0.00,,,0.00,VWS V14.01,2013-01-27 16:23:00,
2013-01-27 10:25:00,26.4,6.4,29.76,NNW,338,0.0,3.4,42,0.00,,,0.00,VWS V14.01,2013-01-27 16:25:00,
2013-01-27 10:27:00,26.6,6.6,29.76,SE,135,7.4,7.4,42,0.00,,,0.00,VWS V14.01,2013-01-27 16:27:00,
2013-01-27 10:29:00,27.1,6.6,29.76,SSE,158,0.0,3.4,41,0.00,,,0.00,VWS V14.01,2013-01-27 16:29:00,
2013-01-27 10:31:00,27.5,6.9,29.76,SE,135,0.0,3.4,41,0.00,,,0.00,VWS V14.01,2013-01-27 16:31:00,
2013-01-27 10:33:00,27.7,7.1,29.76,ENE,68,6.0,6.0,41,0.00,,,0.00,VWS V14.01,2013-01-27 16:33:00,
2013-01-27 10:35:00,27.9,7.2,29.74,ESE,112,8.7,8.7,41,0.00,,,0.00,VWS V14.01,2013-01-27 16:35:00,
2013-01-27 10:37:00,28.0,7.4,29.74,SSE,158,4.0,4.0,41,0.00,,,0.00,VWS V14.01,2013-01-27 16:37:00,
2013-01-27 10:39:00,28.4,7.7,29.74,SE,135,4.0,4.0,41,0.00,,,0.00,VWS V14.01,2013-01-27 16:39:00,
2013-01-27 10:41:00,28.6,7.9,29.74,SSE,158,2.7,3.4,41,0.00,,,0.00,VWS V14.01,2013-01-27 16:41:00,
2013-01-27 10:43:00,28.9,8.2,29.74,SW,225,4.7,4.7,41,0.00,,,0.00,VWS V14.01,2013-01-27 16:43:00,
2013-01-27 10:45:00,29.3,8.5,29.74,NW,315,0.0,3.4,41,0.00,,,0.00,VWS V14.01,2013-01-27 16:45:00,
2013-01-27 10:47:00,29.5,8.7,29.74,SE,135,6.7,6.7,41,0.00,,,0.00,VWS V14.01,2013-01-27 16:47:00,
2013-01-27 10:49:00,29.7,8.9,29.76,SE,135,7.4,7.4,41,0.00,,,0.00,VWS V14.01,2013-01-27 16:49:00,
2013-01-27 10:51:00,29.8,9.0,29.76,South,180,4.0,4.0,41,0.00,,,0.00,VWS V14.01,2013-01-27 16:51:00,
2013-01-27 10:53:00,30.0,9.2,29.76,SSW,202,8.7,8.7,41,0.00,,,0.00,VWS V14.01,2013-01-27 16:53:00,
2013-01-27 10:55:00,30.2,9.4,29.76,SSE,158,2.7,3.4,41,0.00,,,0.00,VWS V14.01,2013-01-27 16:55:00,
2013-01-27 10:57:00,30.4,9.0,29.76,SSW,202,4.0,4.0,40,0.00,,,0.00,VWS V14.01,2013-01-27 16:57:00,
2013-01-27 10:59:00,30.4,9.0,29.76,SSE,158,11.4,11.4,40,0.00,,,0.00,VWS V14.01,2013-01-27 16:59:00,
2013-01-27 11:01:00,30.6,9.1,29.76,South,180,4.0,4.0,40,0.00,,,0.00,VWS V14.01,2013-01-27 17:01:00,
2013-01-27 11:03:00,30.7,9.3,29.76,SE,135,0.0,3.8,40,0.00,,,0.00,VWS V14.01,2013-01-27 17:03:00,
2013-01-27 11:05:00,31.1,9.6,29.74,SSW,202,4.0,4.0,40,0.00,,,0.00,VWS V14.01,2013-01-27 17:05:00,
2013-01-27 11:07:00,31.1,9.6,29.74,NE,45,4.7,4.7,40,0.00,,,0.00,VWS V14.01,2013-01-27 17:07:00,
2013-01-27 11:09:00,31.1,9.1,29.74,SE,135,4.0,4.0,39,0.00,,,0.00,VWS V14.01,2013-01-27 17:09:00,
2013-01-27 11:11:00,31.1,9.1,29.74,ESE,112,9.4,9.4,39,0.00,,,0.00,VWS V14.01,2013-01-27 17:11:00,
2013-01-27 11:13:00,31.1,9.1,29.74,ENE,68,4.0,4.0,39,0.00,,,0.00,VWS V14.01,2013-01-27 17:13:00,
2013-01-27 11:15:00,31.3,9.2,29.74,SE,135,3.4,3.8,39,0.00,,,0.00,VWS V14.01,2013-01-27 17:15:00,
2013-01-27 11:17:00,31.3,9.2,29.74,ESE,112,0.0,3.8,39,0.00,,,0.00,VWS V14.01,2013-01-27 17:17:00,
2013-01-27 11:19:00,31.5,9.4,29.76,SE,135,6.7,6.7,39,0.00,,,0.00,VWS V14.01,2013-01-27 17:19:00,
2013-01-27 11:21:00,31.6,9.0,29.76,South,180,4.0,4.0,38,0.00,,,0.00,VWS V14.01,2013-01-27 17:21:00,
2013-01-27 11:23:00,32.0,9.3,29.76,SSE,158,8.7,8.7,38,0.00,,,0.00,VWS V14.01,2013-01-27 17:23:00,
2013-01-27 11:25:00,32.0,9.3,29.76,SE,135,3.4,3.8,38,0.00,,,0.00,VWS V14.01,2013-01-27 17:25:00,
2013-01-27 11:27:00,32.2,9.4,29.76,ENE,68,2.7,3.8,38,0.00,,,0.00,VWS V14.01,2013-01-27 17:27:00,
2013-01-27 11:29:00,32.2,9.4,29.76,SSE,158,4.7,4.7,38,0.00,,,0.00,VWS V14.01,2013-01-27 17:29:00,
2013-01-27 11:31:00,32.2,9.4,29.76,SE,135,9.4,9.4,38,0.00,,,0.00,VWS V14.01,2013-01-27 17:31:00,
2013-01-27 11:33:00,32.2,9.4,29.76,West,270,4.0,4.0,38,0.00,,,0.00,VWS V14.01,2013-01-27 17:33:00,
2013-01-27 11:35:00,32.2,9.4,29.76,SSE,158,4.0,4.0,38,0.00,,,0.00,VWS V14.01,2013-01-27 17:35:00,
2013-01-27 11:37:00,32.2,9.4,29.76,South,180,4.7,4.7,38,0.00,,,0.00,VWS V14.01,2013-01-27 17:37:00,
2013-01-27 11:39:00,32.2,9.4,29.76,NE,45,7.4,7.4,38,0.00,,,0.00,VWS V14.01,2013-01-27 17:39:00,
2013-01-27 11:41:00,32.2,9.4,29.76,NE,45,4.0,4.0,38,0.00,,,0.00,VWS V14.01,2013-01-27 17:41:00,
2013-01-27 11:43:00,32.2,9.4,29.76,SSE,158,7.4,7.4,38,0.00,,,0.00,VWS V14.01,2013-01-27 17:43:00,
2013-01-27 11:45:00,32.2,9.4,29.76,ESE,112,10.1,10.1,38,0.00,,,0.00,VWS V14.01,2013-01-27 17:45:00,
2013-01-27 11:47:00,32.4,9.6,29.76,ESE,112,7.4,7.4,38,0.00,,,0.00,VWS V14.01,2013-01-27 17:47:00,
2013-01-27 11:49:00,32.5,9.8,29.74,SW,225,0.0,3.4,38,0.00,,,0.00,VWS V14.01,2013-01-27 17:49:00,
2013-01-27 11:51:00,32.7,9.9,29.74,SSE,158,0.0,3.4,38,0.00,,,0.00,VWS V14.01,2013-01-27 17:51:00,
2013-01-27 11:53:00,32.7,9.9,29.74,WSW,248,6.7,6.7,38,0.00,,,0.00,VWS V14.01,2013-01-27 17:53:00,
2013-01-27 11:55:00,32.9,10.1,29.74,South,180,6.7,6.7,38,0.00,,,0.00,VWS V14.01,2013-01-27 17:55:00,
2013-01-27 11:57:00,32.9,10.1,29.74,SSE,158,4.7,4.7,38,0.00,,,0.00,VWS V14.01,2013-01-27 17:57:00,
2013-01-27 11:59:00,32.9,9.5,29.74,SE,135,8.1,8.1,37,0.00,,,0.00,VWS V14.01,2013-01-27 17:59:00,
2013-01-27 12:01:00,32.7,9.3,29.74,SE,135,11.4,11.4,37,0.00,,,0.00,VWS V14.01,2013-01-27 18:01:00,
2013-01-27 12:03:00,32.7,9.3,29.74,SE,135,8.1,8.1,37,0.00,,,0.00,VWS V14.01,2013-01-27 18:03:00,
2013-01-27 12:05:00,32.7,9.3,29.71,SSW,202,6.7,6.7,37,0.00,,,0.00,VWS V14.01,2013-01-27 18:05:00,
2013-01-27 12:07:00,32.7,9.3,29.71,South,180,6.0,6.0,37,0.00,,,0.00,VWS V14.01,2013-01-27 18:07:00,
2013-01-27 12:09:00,32.9,9.5,29.71,SW,225,4.7,4.7,37,0.00,,,0.00,VWS V14.01,2013-01-27 18:09:00,
2013-01-27 12:11:00,32.9,9.5,29.71,SE,135,6.7,6.7,37,0.00,,,0.00,VWS V14.01,2013-01-27 18:11:00,
2013-01-27 12:13:00,33.1,10.2,29.71,ESE,112,4.7,4.7,38,0.00,,,0.00,VWS V14.01,2013-01-27 18:13:00,
2013-01-27 12:15:00,33.1,9.7,29.71,SSW,202,0.0,3.8,37,0.00,,,0.00,VWS V14.01,2013-01-27 18:15:00,
2013-01-27 12:17:00,33.3,9.8,29.71,SSW,202,6.7,6.7,37,0.00,,,0.00,VWS V14.01,2013-01-27 18:17:00,
2013-01-27 12:19:00,33.4,10.6,29.71,WSW,248,4.0,4.0,38,0.00,,,0.00,VWS V14.01,2013-01-27 18:19:00,
2013-01-27 12:21:00,33.6,10.7,29.71,ENE,68,0.0,3.8,38,0.00,,,0.00,VWS V14.01,2013-01-27 18:21:00,
2013-01-27 12:23:00,33.8,10.3,29.71,South,180,7.4,7.4,37,0.00,,,0.00,VWS V14.01,2013-01-27 18:23:00,
2013-01-27 12:25:00,34.0,10.5,29.71,SSW,202,4.7,4.7,37,0.00,,,0.00,VWS V14.01,2013-01-27 18:25:00,
2013-01-27 12:27:00,34.3,10.8,29.71,South,180,4.7,4.7,37,0.00,,,0.00,VWS V14.01,2013-01-27 18:27:00,
2013-01-27 12:29:00,34.5,10.9,29.71,WSW,248,4.0,4.0,37,0.00,,,0.00,VWS V14.01,2013-01-27 18:29:00,
2013-01-27 12:31:00,32.9,10.7,29.71,ESE,112,4.7,4.7,39,0.00,,,0.00,VWS V14.01,2013-01-27 18:31:00,
2013-01-27 12:33:00,34.5,10.9,29.71,NNE,22,10.1,10.1,37,0.00,,,0.00,VWS V14.01,2013-01-27 18:33:00,
2013-01-27 12:35:00,34.3,10.2,29.74,WNW,292,4.7,4.7,36,0.00,,,0.00,VWS V14.01,2013-01-27 18:35:00,
2013-01-27 12:37:00,34.3,10.2,29.74,ESE,112,9.4,9.4,36,0.00,,,0.00,VWS V14.01,2013-01-27 18:37:00,
2013-01-27 12:39:00,34.3,10.2,29.74,WNW,292,4.7,4.7,36,0.00,,,0.00,VWS V14.01,2013-01-27 18:39:00,
2013-01-27 12:41:00,34.0,9.9,29.74,SSE,158,3.4,3.8,36,0.00,,,0.00,VWS V14.01,2013-01-27 18:41:00,
2013-01-27 12:43:00,33.8,9.7,29.74,SSE,158,3.4,3.8,36,0.00,,,0.00,VWS V14.01,2013-01-27 18:43:00,
2013-01-27 12:45:00,34.0,10.5,29.74,SSE,158,3.4,3.4,37,0.00,,,0.00,VWS V14.01,2013-01-27 18:45:00,
2013-01-27 12:47:00,32.7,11.1,29.71,ESE,112,4.7,4.7,40,0.00,,,0.00,VWS V14.01,2013-01-27 18:47:00,
2013-01-27 12:49:00,34.0,10.5,29.71,ESE,112,4.7,4.7,37,0.00,,,0.00,VWS V14.01,2013-01-27 18:49:00,
2013-01-27 12:51:00,33.8,9.7,29.71,ESE,112,4.7,4.7,36,0.00,,,0.00,VWS V14.01,2013-01-27 18:51:00,
2013-01-27 12:53:00,33.6,10.1,29.71,ESE,112,4.7,4.7,37,0.00,,,0.00,VWS V14.01,2013-01-27 18:53:00,
2013-01-27 12:55:00,33.6,10.1,29.71,ESE,112,4.7,4.7,37,0.00,,,0.00,VWS V14.01,2013-01-27 18:55:00,
2013-01-27 12:57:00,33.6,10.1,29.71,ESE,112,4.7,4.7,37,0.00,,,0.00,VWS V14.01,2013-01-27 18:57:00,
2013-01-27 12:59:00,33.4,10.0,29.71,ESE,112,4.7,4.7,37,0.00,,,0.00,VWS V14.01,2013-01-27 18:59:00,
2013-01-27 13:01:00,33.3,9.8,29.71,ESE,112,4.7,4.7,37,0.00,,,0.00,VWS V14.01,2013-01-27 19:01:00,
2013-01-27 13:03:00,33.3,9.8,29.71,ESE,112,4.7,4.7,37,0.00,,,0.00,VWS V14.01,2013-01-27 19:03:00,
2013-01-27 13:05:00,33.3,9.8,29.71,ESE,112,4.7,4.7,37,0.00,,,0.00,VWS V14.01,2013-01-27 19:05:00,
2013-01-27 13:07:00,33.3,9.8,29.71,ESE,112,4.7,4.7,37,0.00,,,0.00,VWS V14.01,2013-01-27 19:07:00,
2013-01-27 13:09:00,33.3,9.8,29.71,ESE,112,4.7,4.7,37,0.00,,,0.00,VWS V14.01,2013-01-27 19:09:00,
2013-01-27 13:11:00,33.1,10.2,29.71,ESE,112,4.7,4.7,38,0.00,,,0.00,VWS V14.01,2013-01-27 19:11:00,
2013-01-27 13:13:00,33.1,10.2,29.71,ESE,112,4.7,4.7,38,0.00,,,0.00,VWS V14.01,2013-01-27 19:13:00,
2013-01-27 13:15:00,33.1,10.2,29.71,ESE,112,4.7,4.7,38,0.00,,,0.00,VWS V14.01,2013-01-27 19:15:00,
2013-01-27 13:17:00,32.9,10.1,29.71,ESE,112,4.7,4.7,38,0.00,,,0.00,VWS V14.01,2013-01-27 19:17:00,
2013-01-27 13:19:00,33.1,10.2,29.71,ESE,112,4.7,4.7,38,0.00,,,0.00,VWS V14.01,2013-01-27 19:19:00,
2013-01-27 13:21:00,33.1,10.2,29.71,ESE,112,4.7,4.7,38,0.00,,,0.00,VWS V14.01,2013-01-27 19:21:00,
2013-01-27 13:23:00,33.1,10.2,29.71,ESE,112,4.7,4.7,38,0.00,,,0.00,VWS V14.01,2013-01-27 19:23:00,
2013-01-27 13:25:00,33.1,10.2,29.71,ESE,112,4.7,4.7,38,0.00,,,0.00,VWS V14.01,2013-01-27 19:25:00,
2013-01-27 13:27:00,32.9,10.1,29.71,ESE,112,4.7,4.7,38,0.00,,,0.00,VWS V14.01,2013-01-27 19:27:00,
2013-01-27 13:29:00,32.9,10.1,29.71,ESE,112,4.7,4.7,38,0.00,,,0.00,VWS V14.01,2013-01-27 19:29:00,
2013-01-27 13:31:00,32.9,10.7,29.71,ESE,112,4.7,4.7,39,0.00,,,0.00,VWS V14.01,2013-01-27 19:31:00,
2013-01-27 13:33:00,32.9,10.7,29.71,ESE,112,4.7,4.7,39,0.00,,,0.00,VWS V14.01,2013-01-27 19:33:00,
2013-01-27 13:35:00,32.9,10.7,29.71,ESE,112,4.7,4.7,39,0.00,,,0.00,VWS V14.01,2013-01-27 19:35:00,
2013-01-27 13:37:00,32.9,10.7,29.71,ESE,112,4.7,4.7,39,0.00,,,0.00,VWS V14.01,2013-01-27 19:37:00,
2013-01-27 13:39:00,32.9,11.2,29.71,ESE,112,4.7,4.7,40,0.00,,,0.00,VWS V14.01,2013-01-27 19:39:00,
2013-01-27 13:41:00,32.9,11.2,29.71,ESE,112,4.7,4.7,40,0.00,,,0.00,VWS V14.01,2013-01-27 19:41:00,
2013-01-27 13:43:00,32.9,11.2,29.71,ESE,112,4.7,4.7,40,0.00,,,0.00,VWS V14.01,2013-01-27 19:43:00,
2013-01-27 13:45:00,32.7,11.1,29.71,ESE,112,4.7,4.7,40,0.00,,,0.00,VWS V14.01,2013-01-27 19:45:00,
2013-01-27 13:47:00,32.7,11.1,29.71,ESE,112,4.7,4.7,40,0.00,,,0.00,VWS V14.01,2013-01-27 19:47:00,
2013-01-27 13:49:00,32.7,11.1,29.68,ESE,112,4.7,4.7,40,0.00,,,0.00,VWS V14.01,2013-01-27 19:49:00,
2013-01-27 13:51:00,32.7,11.1,29.68,ESE,112,4.7,4.7,40,0.00,,,0.00,VWS V14.01,2013-01-27 19:51:00,
2013-01-27 13:53:00,32.7,11.1,29.68,ESE,112,4.7,4.7,40,0.00,,,0.00,VWS V14.01,2013-01-27 19:53:00,
2013-01-27 13:55:00,33.1,13.0,29.65,ESE,112,4.7,4.7,43,0.00,,,0.00,VWS V14.01,2013-01-27 19:55:00,
2013-01-27 13:57:00,32.9,11.8,29.68,ESE,112,4.7,4.7,41,0.00,,,0.00,VWS V14.01,2013-01-27 19:57:00,
2013-01-27 13:59:00,32.9,11.8,29.68,ESE,112,4.7,4.7,41,0.00,,,0.00,VWS V14.01,2013-01-27 19:59:00,
2013-01-27 14:01:00,32.9,11.8,29.68,ESE,112,4.7,4.7,41,0.00,,,0.00,VWS V14.01,2013-01-27 20:01:00,
2013-01-27 14:03:00,32.9,11.8,29.68,ESE,112,4.7,4.7,41,0.00,,,0.00,VWS V14.01,2013-01-27 20:03:00,
2013-01-27 14:05:00,32.9,11.8,29.68,ESE,112,4.7,4.7,41,0.00,,,0.00,VWS V14.01,2013-01-27 20:05:00,
2013-01-27 14:07:00,32.9,11.8,29.68,ESE,112,4.7,4.7,41,0.00,,,0.00,VWS V14.01,2013-01-27 20:07:00,
2013-01-27 14:09:00,32.9,12.3,29.68,ESE,112,4.7,4.7,42,0.00,,,0.00,VWS V14.01,2013-01-27 20:09:00,
2013-01-27 14:11:00,32.9,12.3,29.68,ESE,112,4.7,4.7,42,0.00,,,0.00,VWS V14.01,2013-01-27 20:11:00,
2013-01-27 14:13:00,32.9,12.3,29.68,ESE,112,4.7,4.7,42,0.00,,,0.00,VWS V14.01,2013-01-27 20:13:00,
2013-01-27 14:15:00,32.9,12.3,29.68,ESE,112,4.7,4.7,42,0.00,,,0.00,VWS V14.01,2013-01-27 20:15:00,
2013-01-27 14:17:00,32.9,12.3,29.68,ESE,112,4.7,4.7,42,0.00,,,0.00,VWS V14.01,2013-01-27 20:17:00,
2013-01-27 14:19:00,32.7,12.2,29.65,ESE,112,4.7,4.7,42,0.00,,,0.00,VWS V14.01,2013-01-27 20:19:00,
2013-01-27 14:21:00,32.7,12.2,29.65,ESE,112,4.7,4.7,42,0.00,,,0.00,VWS V14.01,2013-01-27 20:21:00,
2013-01-27 14:23:00,32.7,12.7,29.65,ESE,112,4.7,4.7,43,0.00,,,0.00,VWS V14.01,2013-01-27 20:23:00,
2013-01-27 14:25:00,32.5,12.5,29.65,ESE,112,4.7,4.7,43,0.00,,,0.00,VWS V14.01,2013-01-27 20:25:00,
2013-01-27 14:27:00,32.5,12.5,29.65,ESE,112,4.7,4.7,43,0.00,,,0.00,VWS V14.01,2013-01-27 20:27:00,
2013-01-27 14:29:00,32.7,12.7,29.65,ESE,112,4.7,4.7,43,0.00,,,0.00,VWS V14.01,2013-01-27 20:29:00,
2013-01-27 14:31:00,32.5,12.5,29.65,ESE,112,4.7,4.7,43,0.00,,,0.00,VWS V14.01,2013-01-27 20:31:00,
2013-01-27 14:33:00,32.5,13.1,29.65,ESE,112,4.7,4.7,44,0.00,,,0.00,VWS V14.01,2013-01-27 20:33:00,
2013-01-27 14:35:00,32.7,13.2,29.65,ESE,112,4.7,4.7,44,0.00,,,0.00,VWS V14.01,2013-01-27 20:35:00,
2013-01-27 14:37:00,32.7,13.2,29.65,ESE,112,4.7,4.7,44,0.00,,,0.00,VWS V14.01,2013-01-27 20:37:00,
2013-01-27 14:39:00,32.7,13.2,29.65,ESE,112,4.7,4.7,44,0.00,,,0.00,VWS V14.01,2013-01-27 20:39:00,
2013-01-27 14:41:00,32.7,13.2,29.65,ESE,112,4.7,4.7,44,0.00,,,0.00,VWS V14.01,2013-01-27 20:41:00,
2013-01-27 14:43:00,32.5,13.1,29.65,ESE,112,4.7,4.7,44,0.00,,,0.00,VWS V14.01,2013-01-27 20:43:00,
2013-01-27 14:45:00,32.7,13.2,29.65,ESE,112,4.7,4.7,44,0.00,,,0.00,VWS V14.01,2013-01-27 20:45:00,
2013-01-27 14:47:00,32.9,13.4,29.65,ESE,112,4.7,4.7,44,0.00,,,0.00,VWS V14.01,2013-01-27 20:47:00,
2013-01-27 14:49:00,32.9,13.4,29.65,ESE,112,4.7,4.7,44,0.00,,,0.00,VWS V14.01,2013-01-27 20:49:00,
2013-01-27 14:51:00,33.1,13.6,29.65,ESE,112,4.7,4.7,44,0.00,,,0.00,VWS V14.01,2013-01-27 20:51:00,
2013-01-27 14:53:00,33.1,13.0,29.65,ESE,112,4.7,4.7,43,0.00,,,0.00,VWS V14.01,2013-01-27 20:53:00,
2013-01-27 14:55:00,33.1,13.0,29.65,ESE,112,4.7,4.7,43,0.00,,,0.00,VWS V14.01,2013-01-27 20:55:00,
2013-01-27 14:57:00,33.1,13.0,29.65,ESE,112,4.7,4.7,43,0.00,,,0.00,VWS V14.01,2013-01-27 20:57:00,
2013-01-27 14:59:00,33.1,13.0,29.65,ESE,112,4.7,4.7,43,0.00,,,0.00,VWS V14.01,2013-01-27 20:59:00,
2013-01-27 15:01:00,32.9,12.9,29.65,ESE,112,4.7,4.7,43,0.00,,,0.00,VWS V14.01,2013-01-27 21:01:00,
2013-01-27 15:03:00,33.1,13.0,29.65,ESE,112,4.7,4.7,43,0.00,,,0.00,VWS V14.01,2013-01-27 21:03:00,
2013-01-27 15:05:00,33.1,13.0,29.65,ESE,112,4.7,4.7,43,0.00,,,0.00,VWS V14.01,2013-01-27 21:05:00,
2013-01-27 15:07:00,33.1,13.0,29.65,ESE,112,4.7,4.7,43,0.00,,,0.00,VWS V14.01,2013-01-27 21:07:00,
2013-01-27 15:09:00,33.1,13.0,29.65,ESE,112,4.7,4.7,43,0.00,,,0.00,VWS V14.01,2013-01-27 21:09:00,
2013-01-27 15:11:00,33.1,13.0,29.65,ESE,112,4.7,4.7,43,0.00,,,0.00,VWS V14.01,2013-01-27 21:11:00,
2013-01-27 15:13:00,33.1,13.0,29.65,ESE,112,4.7,4.7,43,0.00,,,0.00,VWS V14.01,2013-01-27 21:13:00,
2013-01-27 15:15:00,32.9,12.9,29.65,ESE,112,4.7,4.7,43,0.00,,,0.00,VWS V14.01,2013-01-27 21:15:00,
2013-01-27 15:17:00,32.7,12.7,29.65,ESE,112,4.7,4.7,43,0.00,,,0.00,VWS V14.01,2013-01-27 21:17:00,
2013-01-27 15:19:00,32.7,12.7,29.65,ESE,112,4.7,4.7,43,0.00,,,0.00,VWS V14.01,2013-01-27 21:19:00,
2013-01-27 15:21:00,32.7,12.7,29.65,ESE,112,4.7,4.7,43,0.00,,,0.00,VWS V14.01,2013-01-27 21:21:00,
2013-01-27 15:23:00,32.9,12.9,29.65,ESE,112,4.7,4.7,43,0.00,,,0.00,VWS V14.01,2013-01-27 21:23:00,
2013-01-27 15:25:00,32.9,12.9,29.65,ESE,112,4.7,4.7,43,0.00,,,0.00,VWS V14.01,2013-01-27 21:25:00,
2013-01-27 15:27:00,32.9,12.9,29.65,ESE,112,4.7,4.7,43,0.00,,,0.00,VWS V14.01,2013-01-27 21:27:00,
2013-01-27 15:29:00,32.9,12.9,29.65,ESE,112,4.7,4.7,43,0.00,,,0.00,VWS V14.01,2013-01-27 21:29:00,
2013-01-27 15:31:00,32.9,12.9,29.65,ESE,112,4.7,4.7,43,0.00,,,0.00,VWS V14.01,2013-01-27 21:31:00,
2013-01-27 15:33:00,32.7,12.7,29.65,ESE,112,4.7,4.7,43,0.00,,,0.00,VWS V14.01,2013-01-27 21:33:00,
2013-01-27 15:35:00,32.5,12.5,29.65,ESE,112,4.7,4.7,43,0.00,,,0.00,VWS V14.01,2013-01-27 21:35:00,
2013-01-27 15:37:00,32.4,12.4,29.65,ESE,112,4.7,4.7,43,0.00,,,0.00,VWS V14.01,2013-01-27 21:37:00,
2013-01-27 15:39:00,32.4,12.4,29.65,ESE,112,4.7,4.7,43,0.00,,,0.00,VWS V14.01,2013-01-27 21:39:00,
2013-01-27 15:41:00,32.4,12.9,29.65,ESE,112,4.7,4.7,44,0.00,,,0.00,VWS V14.01,2013-01-27 21:41:00,
2013-01-27 15:43:00,32.4,12.4,29.65,ESE,112,4.7,4.7,43,0.00,,,0.00,VWS V14.01,2013-01-27 21:43:00,
2013-01-27 15:45:00,32.4,12.9,29.65,ESE,112,4.7,4.7,44,0.00,,,0.00,VWS V14.01,2013-01-27 21:45:00,
2013-01-27 15:47:00,32.4,12.9,29.65,ESE,112,4.7,4.7,44,0.00,,,0.00,VWS V14.01,2013-01-27 21:47:00,
2013-01-27 15:49:00,32.2,12.7,29.62,ESE,112,4.7,4.7,44,0.00,,,0.00,VWS V14.01,2013-01-27 21:49:00,
2013-01-27 15:51:00,32.0,12.6,29.62,ESE,112,4.7,4.7,44,0.00,,,0.00,VWS V14.01,2013-01-27 21:51:00,
2013-01-27 15:53:00,32.0,12.6,29.62,ESE,112,4.7,4.7,44,0.00,,,0.00,VWS V14.01,2013-01-27 21:53:00,
2013-01-27 15:55:00,31.8,12.4,29.62,ESE,112,4.7,4.7,44,0.00,,,0.00,VWS V14.01,2013-01-27 21:55:00,
2013-01-27 15:57:00,31.8,12.9,29.62,ESE,112,4.7,4.7,45,0.00,,,0.00,VWS V14.01,2013-01-27 21:57:00,
2013-01-27 15:59:00,31.8,12.9,29.62,ESE,112,4.7,4.7,45,0.00,,,0.00,VWS V14.01,2013-01-27 21:59:00,
2013-01-27 16:01:00,31.8,12.9,29.62,ESE,112,4.7,4.7,45,0.00,,,0.00,VWS V14.01,2013-01-27 22:01:00,
2013-01-27 16:03:00,31.6,13.2,29.62,ESE,112,4.7,4.7,46,0.00,,,0.00,VWS V14.01,2013-01-27 22:03:00,
2013-01-27 16:05:00,31.6,13.2,29.65,ESE,112,4.7,4.7,46,0.00,,,0.00,VWS V14.01,2013-01-27 22:05:00,
2013-01-27 16:07:00,31.5,13.1,29.65,ESE,112,4.7,4.7,46,0.00,,,0.00,VWS V14.01,2013-01-27 22:07:00,
2013-01-27 16:09:00,31.5,13.1,29.65,ESE,112,4.7,4.7,46,0.00,,,0.00,VWS V14.01,2013-01-27 22:09:00,
2013-01-27 16:11:00,30.0,17.0,29.65,SE,135,0.0,3.6,58,0.00,,,0.00,VWS V14.01,2013-01-27 22:11:00,
2013-01-27 16:13:00,31.5,13.6,29.65,ESE,112,4.7,4.7,47,0.00,,,0.00,VWS V14.01,2013-01-27 22:13:00,
2013-01-27 16:15:00,31.3,13.9,29.65,ESE,112,4.7,4.7,48,0.00,,,0.00,VWS V14.01,2013-01-27 22:15:00,
2013-01-27 16:17:00,31.3,13.9,29.65,ESE,112,4.7,4.7,48,0.00,,,0.00,VWS V14.01,2013-01-27 22:17:00,
2013-01-27 16:19:00,31.1,13.7,29.62,ESE,112,4.7,4.7,48,0.00,,,0.00,VWS V14.01,2013-01-27 22:19:00,
2013-01-27 16:21:00,31.1,14.2,29.62,ESE,112,4.7,4.7,49,0.00,,,0.00,VWS V14.01,2013-01-27 22:21:00,
2013-01-27 16:23:00,31.1,14.6,29.62,ESE,112,4.7,4.7,50,0.00,,,0.00,VWS V14.01,2013-01-27 22:23:00,
2013-01-27 16:25:00,31.1,14.6,29.62,ESE,112,4.7,4.7,50,0.00,,,0.00,VWS V14.01,2013-01-27 22:25:00,
2013-01-27 16:27:00,30.9,14.5,29.62,ESE,112,4.7,4.7,50,0.00,,,0.00,VWS V14.01,2013-01-27 22:27:00,
2013-01-27 16:29:00,30.9,14.5,29.62,ESE,112,4.7,4.7,50,0.00,,,0.00,VWS V14.01,2013-01-27 22:29:00,
2013-01-27 16:31:00,30.7,14.3,29.62,ESE,112,4.7,4.7,50,0.00,,,0.00,VWS V14.01,2013-01-27 22:31:00,
2013-01-27 16:33:00,30.7,14.8,29.62,ESE,112,4.7,4.7,51,0.00,,,0.00,VWS V14.01,2013-01-27 22:33:00,
2013-01-27 16:35:00,30.6,14.6,29.65,ESE,112,4.7,4.7,51,0.00,,,0.00,VWS V14.01,2013-01-27 22:35:00,
2013-01-27 16:37:00,30.6,15.0,29.65,ESE,112,4.7,4.7,52,0.00,,,0.00,VWS V14.01,2013-01-27 22:37:00,
2013-01-27 16:39:00,30.6,15.5,29.65,ESE,112,4.7,4.7,53,0.00,,,0.00,VWS V14.01,2013-01-27 22:39:00,
2013-01-27 16:41:00,30.6,15.5,29.65,ESE,112,4.7,4.7,53,0.00,,,0.00,VWS V14.01,2013-01-27 22:41:00,
2013-01-27 16:43:00,30.6,15.9,29.65,ESE,112,4.7,4.7,54,0.00,,,0.00,VWS V14.01,2013-01-27 22:43:00,
2013-01-27 16:45:00,30.4,15.7,29.65,ESE,112,4.7,4.7,54,0.00,,,0.00,VWS V14.01,2013-01-27 22:45:00,
2013-01-27 16:47:00,30.4,15.7,29.65,ESE,112,4.7,4.7,54,0.00,,,0.00,VWS V14.01,2013-01-27 22:47:00,
2013-01-27 16:49:00,30.4,15.7,29.65,ESE,112,4.7,4.7,54,0.00,,,0.00,VWS V14.01,2013-01-27 22:49:00,
2013-01-27 16:51:00,30.4,16.2,29.65,ESE,112,4.7,4.7,55,0.00,,,0.00,VWS V14.01,2013-01-27 22:51:00,
2013-01-27 16:53:00,30.4,16.2,29.65,ESE,112,6.0,6.0,55,0.00,,,0.00,VWS V14.01,2013-01-27 22:53:00,
2013-01-27 16:55:00,30.2,16.4,29.65,ESE,112,6.0,6.0,56,0.00,,,0.00,VWS V14.01,2013-01-27 22:55:00,
2013-01-27 16:57:00,30.2,16.4,29.65,East,90,4.0,4.0,56,0.00,,,0.00,VWS V14.01,2013-01-27 22:57:00,
2013-01-27 16:59:00,30.2,16.4,29.65,NNE,22,8.1,8.1,56,0.00,,,0.00,VWS V14.01,2013-01-27 22:59:00,
2013-01-27 17:01:00,30.2,16.8,29.65,SE,135,7.4,7.4,57,0.00,,,0.00,VWS V14.01,2013-01-27 23:01:00,
2013-01-27 17:03:00,30.2,17.2,29.65,SE,135,10.7,10.7,58,0.00,,,0.00,VWS V14.01,2013-01-27 23:03:00,
2013-01-27 17:05:00,30.2,17.2,29.65,ENE,68,8.1,8.1,58,0.00,,,0.00,VWS V14.01,2013-01-27 23:05:00,
2013-01-27 17:07:00,30.0,17.0,29.65,ESE,112,6.0,6.0,58,0.00,,,0.00,VWS V14.01,2013-01-27 23:07:00,
2013-01-27 17:09:00,30.0,17.0,29.65,SSW,202,0.0,3.6,58,0.00,,,0.00,VWS V14.01,2013-01-27 23:09:00,
2013-01-27 17:11:00,30.0,17.0,29.65,SE,135,0.0,3.6,58,0.00,,,0.00,VWS V14.01,2013-01-27 23:11:00,
2013-01-27 17:13:00,29.8,16.9,29.65,ESE,112,7.4,7.4,58,0.00,,,0.00,VWS V14.01,2013-01-27 23:13:00,
2013-01-27 17:15:00,29.8,16.9,29.65,ESE,112,2.7,3.6,58,0.00,,,0.00,VWS V14.01,2013-01-27 23:15:00,
2013-01-27 17:17:00,29.8,17.3,29.65,East,90,8.1,8.1,59,0.00,,,0.00,VWS V14.01,2013-01-27 23:17:00,
2013-01-27 17:19:00,29.7,17.1,29.62,ESE,112,0.0,3.6,59,0.00,,,0.00,VWS V14.01,2013-01-27 23:19:00,
2013-01-27 17:21:00,29.7,17.1,29.62,East,90,0.0,3.6,59,0.00,,,0.00,VWS V14.01,2013-01-27 23:21:00,
2013-01-27 17:23:00,29.7,17.1,29.62,SW,225,0.0,3.6,59,0.00,,,0.00,VWS V14.01,2013-01-27 23:23:00,
2013-01-27 17:25:00,29.7,17.1,29.62,ESE,112,9.4,9.4,59,0.00,,,0.00,VWS V14.01,2013-01-27 23:25:00,
2013-01-27 17:27:00,29.7,17.5,29.62,NW,315,4.7,4.7,60,0.00,,,0.00,VWS V14.01,2013-01-27 23:27:00,
2013-01-27 17:29:00,29.7,18.2,29.62,ESE,112,3.4,3.6,62,0.00,,,0.00,VWS V14.01,2013-01-27 23:29:00,
2013-01-27 17:31:00,29.5,18.1,29.62,ESE,112,0.0,3.6,62,0.00,,,0.00,VWS V14.01,2013-01-27 23:31:00,
2013-01-27 17:33:00,29.5,17.7,29.62,East,90,4.7,4.7,61,0.00,,,0.00,VWS V14.01,2013-01-27 23:33:00,
2013-01-27 17:35:00,29.5,17.7,29.65,WSW,248,4.7,4.7,61,0.00,,,0.00,VWS V14.01,2013-01-27 23:35:00,
2013-01-27 17:37:00,29.5,17.7,29.65,SSE,158,6.0,6.0,61,0.00,,,0.00,VWS V14.01,2013-01-27 23:37:00,
2013-01-27 17:39:00,29.5,18.1,29.65,SE,135,0.0,3.6,62,0.00,,,0.00,VWS V14.01,2013-01-27 23:39:00,
2013-01-27 17:41:00,29.5,18.1,29.65,SSE,158,0.0,3.6,62,0.00,,,0.00,VWS V14.01,2013-01-27 23:41:00,
2013-01-27 17:43:00,29.5,18.1,29.65,ESE,112,4.7,4.7,62,0.00,,,0.00,VWS V14.01,2013-01-27 23:43:00,
2013-01-27 17:45:00,29.5,18.1,29.65,East,90,6.0,6.0,62,0.00,,,0.00,VWS V14.01,2013-01-27 23:45:00,
2013-01-27 17:47:00,29.5,18.1,29.65,SSE,158,2.7,3.1,62,0.00,,,0.00,VWS V14.01,2013-01-27 23:47:00,
2013-01-27 17:49:00,29.5,18.5,29.65,ESE,112,0.0,3.1,63,0.00,,,0.00,VWS V14.01,2013-01-27 23:49:00,
2013-01-27 17:51:00,29.5,18.5,29.65,East,90,6.0,6.0,63,0.00,,,0.00,VWS V14.01,2013-01-27 23:51:00,
2013-01-27 17:53:00,29.5,18.8,29.65,East,90,6.7,6.7,64,0.00,,,0.00,VWS V14.01,2013-01-27 23:53:00,
2013-01-27 17:55:00,29.5,18.8,29.65,SE,135,4.0,4.0,64,0.00,,,0.00,VWS V14.01,2013-01-27 23:55:00,
2013-01-27 17:57:00,29.5,19.2,29.65,ENE,68,0.0,3.1,65,0.00,,,0.00,VWS V14.01,2013-01-27 23:57:00,
2013-01-27 17:59:00,29.5,19.2,29.65,ESE,112,2.7,3.1,65,0.00,,,0.00,VWS V14.01,2013-01-27 23:59:00,
2013-01-27 18:01:00,29.5,18.8,29.65,ESE,112,4.0,4.0,64,0.00,,,0.00,VWS V14.01,2013-01-28 00:01:00,
2013-01-27 18:03:00,29.5,18.8,29.65,ENE,68,7.4,7.4,64,0.00,,,0.00,VWS V14.01,2013-01-28 00:03:00,
2013-01-27 18:05:00,29.5,19.2,29.65,ESE,112,3.4,3.4,65,0.00,,,0.00,VWS V14.01,2013-01-28 00:05:00,
2013-01-27 18:07:00,29.5,19.2,29.65,NE,45,4.0,4.0,65,0.00,,,0.00,VWS V14.01,2013-01-28 00:07:00,
2013-01-27 18:09:00,29.7,19.7,29.65,SE,135,0.0,2.5,66,0.00,,,0.00,VWS V14.01,2013-01-28 00:09:00,
2013-01-27 18:11:00,29.5,19.5,29.65,East,90,4.0,4.0,66,0.00,,,0.00,VWS V14.01,2013-01-28 00:11:00,
2013-01-27 18:13:00,29.5,19.5,29.65,East,90,4.7,4.7,66,0.00,,,0.00,VWS V14.01,2013-01-28 00:13:00,
2013-01-27 18:15:00,29.5,19.5,29.65,NE,45,0.0,2.5,66,0.00,,,0.00,VWS V14.01,2013-01-28 00:15:00,
2013-01-27 18:17:00,29.5,19.5,29.65,SE,135,3.4,3.4,66,0.00,,,0.00,VWS V14.01,2013-01-28 00:17:00,
2013-01-27 18:19:00,29.5,19.5,29.65,SE,135,0.0,2.5,66,0.00,,,0.00,VWS V14.01,2013-01-28 00:19:00,
2013-01-27 18:21:00,29.5,19.5,29.65,ESE,112,4.7,4.7,66,0.00,,,0.00,VWS V14.01,2013-01-28 00:21:00,
2013-01-27 18:23:00,29.5,19.5,29.65,SE,135,0.0,2.5,66,0.00,,,0.00,VWS V14.01,2013-01-28 00:23:00,
2013-01-27 18:25:00,29.5,19.9,29.65,East,90,0.0,2.5,67,0.00,,,0.00,VWS V14.01,2013-01-28 00:25:00,
2013-01-27 18:27:00,29.5,19.9,29.65,East,90,4.0,4.0,67,0.00,,,0.00,VWS V14.01,2013-01-28 00:27:00,
2013-01-27 18:29:00,29.5,19.9,29.65,East,90,0.0,2.5,67,0.00,,,0.00,VWS V14.01,2013-01-28 00:29:00,
2013-01-27 18:31:00,29.5,19.5,29.65,SE,135,3.4,3.4,66,0.00,,,0.00,VWS V14.01,2013-01-28 00:31:00,
2013-01-27 18:33:00,29.5,19.9,29.65,South,180,6.0,6.0,67,0.00,,,0.00,VWS V14.01,2013-01-28 00:33:00,
2013-01-27 18:35:00,29.5,19.9,29.65,SE,135,0.0,2.5,67,0.00,,,0.00,VWS V14.01,2013-01-28 00:35:00,
2013-01-27 18:37:00,29.5,19.9,29.65,SW,225,0.0,2.5,67,0.00,,,0.00,VWS V14.01,2013-01-28 00:37:00,
2013-01-27 18:39:00,29.5,19.9,29.65,SE,135,6.0,6.0,67,0.00,,,0.00,VWS V14.01,2013-01-28 00:39:00,
2013-01-27 18:41:00,29.7,20.4,29.65,ESE,112,9.4,9.4,68,0.00,,,0.00,VWS V14.01,2013-01-28 00:41:00,
2013-01-27 18:43:00,29.5,20.6,29.65,ESE,112,0.0,3.1,69,0.00,,,0.00,VWS V14.01,2013-01-28 00:43:00,
2013-01-27 18:45:00,29.5,20.6,29.65,SSE,158,4.7,4.7,69,0.00,,,0.00,VWS V14.01,2013-01-28 00:45:00,
2013-01-27 18:47:00,29.5,20.2,29.65,SE,135,0.0,3.1,68,0.00,,,0.00,VWS V14.01,2013-01-28 00:47:00,
2013-01-27 18:49:00,29.5,20.2,29.65,SSE,158,0.0,3.1,68,0.00,,,0.00,VWS V14.01,2013-01-28 00:49:00,
2013-01-27 18:51:00,29.5,20.2,29.65,SE,135,0.0,3.1,68,0.00,,,0.00,VWS V14.01,2013-01-28 00:51:00,
2013-01-27 18:53:00,29.5,20.2,29.65,East,90,4.7,4.7,68,0.00,,,0.00,VWS V14.01,2013-01-28 00:53:00,
2013-01-27 18:55:00,29.5,20.2,29.65,SSE,158,0.0,3.1,68,0.00,,,0.00,VWS V14.01,2013-01-28 00:55:00,
2013-01-27 18:57:00,29.5,20.2,29.65,SE,135,0.0,3.1,68,0.00,,,0.00,VWS V14.01,2013-01-28 00:57:00,
2013-01-27 18:59:00,29.5,20.2,29.65,East,90,4.0,4.0,68,0.00,,,0.00,VWS V14.01,2013-01-28 00:59:00,
2013-01-27 19:01:00,29.5,20.6,29.65,ESE,112,0.0,3.1,69,0.00,,,0.00,VWS V14.01,2013-01-28 01:01:00,
2013-01-27 19:03:00,29.5,20.6,29.65,SSE,158,0.0,3.1,69,0.00,,,0.00,VWS V14.01,2013-01-28 01:03:00,
2013-01-27 19:05:00,29.5,20.6,29.65,SE,135,0.0,3.1,69,0.00,,,0.00,VWS V14.01,2013-01-28 01:05:00,
2013-01-27 19:07:00,29.5,20.6,29.65,South,180,6.7,6.7,69,0.00,,,0.00,VWS V14.01,2013-01-28 01:07:00,
2013-01-27 19:09:00,29.5,20.6,29.65,SE,135,0.0,3.1,69,0.00,,,0.00,VWS V14.01,2013-01-28 01:09:00,
2013-01-27 19:11:00,29.5,20.6,29.65,SSE,158,6.0,6.0,69,0.00,,,0.00,VWS V14.01,2013-01-28 01:11:00,
2013-01-27 19:13:00,29.5,20.6,29.65,SE,135,3.4,3.4,69,0.00,,,0.00,VWS V14.01,2013-01-28 01:13:00,
2013-01-27 19:15:00,29.5,20.6,29.65,ESE,112,0.0,3.1,69,0.00,,,0.00,VWS V14.01,2013-01-28 01:15:00,
2013-01-27 19:17:00,29.5,20.6,29.65,ESE,112,0.0,3.1,69,0.00,,,0.00,VWS V14.01,2013-01-28 01:17:00,
2013-01-27 19:19:00,29.5,20.6,29.65,ESE,112,0.0,3.1,69,0.00,,,0.00,VWS V14.01,2013-01-28 01:19:00,
2013-01-27 19:21:00,29.5,20.6,29.65,SSW,202,0.0,2.2,69,0.00,,,0.00,VWS V14.01,2013-01-28 01:21:00,
2013-01-27 19:23:00,29.5,20.6,29.65,ESE,112,4.0,4.0,69,0.00,,,0.00,VWS V14.01,2013-01-28 01:23:00,
2013-01-27 19:25:00,29.5,20.9,29.65,ENE,68,2.7,2.7,70,0.00,,,0.00,VWS V14.01,2013-01-28 01:25:00,
2013-01-27 19:27:00,29.5,20.9,29.65,ESE,112,0.0,2.2,70,0.00,,,0.00,VWS V14.01,2013-01-28 01:27:00,
2013-01-27 19:29:00,29.5,21.2,29.65,ESE,112,3.4,3.4,71,0.00,,,0.00,VWS V14.01,2013-01-28 01:29:00,
2013-01-27 19:31:00,29.5,21.2,29.65,ESE,112,0.0,2.2,71,0.00,,,0.00,VWS V14.01,2013-01-28 01:31:00,
2013-01-27 19:33:00,29.5,20.9,29.65,SE,135,0.0,2.2,70,0.00,,,0.00,VWS V14.01,2013-01-28 01:33:00,
2013-01-27 19:35:00,29.5,21.2,29.65,ENE,68,0.0,2.2,71,0.00,,,0.00,VWS V14.01,2013-01-28 01:35:00,
2013-01-27 19:37:00,29.5,20.9,29.65,ESE,112,0.0,2.2,70,0.00,,,0.00,VWS V14.01,2013-01-28 01:37:00,
2013-01-27 19:39:00,29.5,20.9,29.65,SE,135,0.0,2.2,70,0.00,,,0.00,VWS V14.01,2013-01-28 01:39:00,
2013-01-27 19:41:00,29.5,20.9,29.65,SE,135,0.0,2.2,70,0.00,,,0.00,VWS V14.01,2013-01-28 01:41:00,
2013-01-27 19:43:00,29.5,20.9,29.65,East,90,0.0,2.2,70,0.00,,,0.00,VWS V14.01,2013-01-28 01:43:00,
2013-01-27 19:45:00,29.5,21.2,29.65,SSE,158,0.0,2.2,71,0.00,,,0.00,VWS V14.01,2013-01-28 01:45:00,
2013-01-27 19:46:00,29.5,22.2,29.65,ESE,112,0.0,0.0,74,0.00,,,0.00,VWS V14.01,2013-01-28 01:46:00,
2013-01-27 19:47:00,29.5,21.2,29.65,SSE,158,0.0,2.0,71,0.00,,,0.00,VWS V14.01,2013-01-28 01:47:00,
2013-01-27 19:48:00,29.5,22.5,29.62,SSE,158,0.0,2.5,75,0.00,,,0.00,VWS V14.01,2013-01-28 01:48:00,
2013-01-27 19:49:00,29.5,20.9,29.65,East,90,0.0,2.0,70,0.00,,,0.00,VWS V14.01,2013-01-28 01:49:00,
2013-01-27 19:50:00,29.3,22.4,29.65,West,270,0.0,1.1,75,0.00,,,0.00,VWS V14.01,2013-01-28 01:50:00,
2013-01-27 19:51:00,29.5,20.9,29.65,ESE,112,0.0,1.3,70,0.00,,,0.00,VWS V14.01,2013-01-28 01:51:00,
2013-01-27 19:52:00,29.3,22.1,29.65,East,90,0.0,1.3,74,0.00,,,0.00,VWS V14.01,2013-01-28 01:52:00,
2013-01-27 19:53:00,29.5,21.2,29.65,SE,135,4.7,4.7,71,0.00,,,0.00,VWS V14.01,2013-01-28 01:53:00,
2013-01-27 19:54:00,29.3,22.1,29.65,ESE,112,0.0,1.3,74,0.00,,,0.00,VWS V14.01,2013-01-28 01:54:00,
2013-01-27 19:55:00,29.5,21.6,29.65,SE,135,4.7,4.7,72,0.00,,,0.00,VWS V14.01,2013-01-28 01:55:00,
2013-01-27 19:56:00,29.3,22.1,29.65,ESE,112,6.7,6.7,74,0.00,,,0.00,VWS V14.01,2013-01-28 01:56:00,
2013-01-27 19:57:00,29.5,21.6,29.65,SE,135,4.7,4.7,72,0.00,,,0.00,VWS V14.01,2013-01-28 01:57:00,
2013-01-27 19:58:00,29.3,22.4,29.65,SE,135,0.0,1.1,75,0.00,,,0.00,VWS V14.01,2013-01-28 01:58:00,
2013-01-27 19:59:00,29.5,21.6,29.65,SE,135,4.0,4.0,72,0.00,,,0.00,VWS V14.01,2013-01-28 01:59:00,
2013-01-27 20:00:00,29.3,22.4,29.65,East,90,4.0,4.0,75,0.00,,,0.00,VWS V14.01,2013-01-28 02:00:00,
2013-01-27 20:01:00,29.5,21.6,29.65,ESE,112,3.4,3.4,72,0.00,,,0.00,VWS V14.01,2013-01-28 02:01:00,
2013-01-27 20:02:00,29.3,22.4,29.65,ESE,112,6.0,6.0,75,0.00,,,0.00,VWS V14.01,2013-01-28 02:02:00,
2013-01-27 20:03:00,29.5,21.6,29.65,ESE,112,0.0,1.6,72,0.00,,,0.00,VWS V14.01,2013-01-28 02:03:00,
2013-01-27 20:04:00,29.3,22.4,29.65,ESE,112,4.0,4.0,75,0.00,,,0.00,VWS V14.01,2013-01-28 02:04:00,
2013-01-27 20:05:00,29.5,21.6,29.65,ESE,112,0.0,1.6,72,0.00,,,0.00,VWS V14.01,2013-01-28 02:05:00,
2013-01-27 20:06:00,29.3,22.4,29.65,SSE,158,4.7,4.7,75,0.00,,,0.00,VWS V14.01,2013-01-28 02:06:00,
2013-01-27 20:07:00,29.5,21.6,29.65,SE,135,0.0,1.6,72,0.00,,,0.00,VWS V14.01,2013-01-28 02:07:00,
2013-01-27 20:08:00,29.3,22.4,29.65,ESE,112,7.4,7.4,75,0.00,,,0.00,VWS V14.01,2013-01-28 02:08:00,
2013-01-27 20:09:00,29.5,21.6,29.65,SE,135,0.0,1.6,72,0.00,,,0.00,VWS V14.01,2013-01-28 02:09:00,
2013-01-27 20:10:00,29.1,22.2,29.65,NW,315,0.0,1.1,75,0.00,,,0.00,VWS V14.01,2013-01-28 02:10:00,
2013-01-27 20:11:00,29.5,21.6,29.65,ESE,112,0.0,1.6,72,0.00,,,0.00,VWS V14.01,2013-01-28 02:11:00,
2013-01-27 20:12:00,29.1,22.2,29.65,ESE,112,6.7,6.7,75,0.00,,,0.00,VWS V14.01,2013-01-28 02:12:00,
2013-01-27 20:13:00,29.5,21.6,29.65,ESE,112,0.0,1.6,72,0.00,,,0.00,VWS V14.01,2013-01-28 02:13:00,
2013-01-27 20:14:00,29.1,22.2,29.65,SE,135,4.7,4.7,75,0.00,,,0.00,VWS V14.01,2013-01-28 02:14:00,
2013-01-27 20:15:00,29.5,21.6,29.65,SSE,158,0.0,1.6,72,0.00,,,0.00,VWS V14.01,2013-01-28 02:15:00,
2013-01-27 20:16:00,29.1,22.5,29.65,SSE,158,0.0,1.6,76,0.00,,,0.00,VWS V14.01,2013-01-28 02:16:00,
2013-01-27 20:17:00,29.5,21.6,29.65,SE,135,0.0,1.6,72,0.00,,,0.00,VWS V14.01,2013-01-28 02:17:00,
2013-01-27 20:18:00,29.1,22.5,29.65,SE,135,0.0,2.0,76,0.00,,,0.00,VWS V14.01,2013-01-28 02:18:00,
2013-01-27 20:19:00,29.5,21.6,29.62,SE,135,0.0,1.6,72,0.00,,,0.00,VWS V14.01,2013-01-28 02:19:00,
2013-01-27 20:20:00,29.1,22.5,29.65,East,90,2.7,2.7,76,0.00,,,0.00,VWS V14.01,2013-01-28 02:20:00,
2013-01-27 20:21:00,29.5,21.6,29.62,SE,135,0.0,1.6,72,0.00,,,0.00,VWS V14.01,2013-01-28 02:21:00,
2013-01-27 20:22:00,28.9,22.3,29.65,ESE,112,4.0,4.0,76,0.00,,,0.00,VWS V14.01,2013-01-28 02:22:00,
2013-01-27 20:23:00,29.5,21.6,29.62,SE,135,0.0,1.6,72,0.00,,,0.00,VWS V14.01,2013-01-28 02:23:00,
2013-01-27 20:24:00,28.9,22.3,29.65,SSE,158,0.0,2.0,76,0.00,,,0.00,VWS V14.01,2013-01-28 02:24:00,
2013-01-27 20:25:00,29.5,21.9,29.62,SE,135,0.0,1.6,73,0.00,,,0.00,VWS V14.01,2013-01-28 02:25:00,
2013-01-27 20:26:00,28.9,22.3,29.65,ESE,112,2.7,2.7,76,0.00,,,0.00,VWS V14.01,2013-01-28 02:26:00,
2013-01-27 20:27:00,29.5,21.9,29.62,SE,135,0.0,1.6,73,0.00,,,0.00,VWS V14.01,2013-01-28 02:27:00,
2013-01-27 20:28:00,28.9,22.3,29.65,East,90,4.0,4.0,76,0.00,,,0.00,VWS V14.01,2013-01-28 02:28:00,
2013-01-27 20:29:00,29.5,21.9,29.62,SE,135,0.0,1.6,73,0.00,,,0.00,VWS V14.01,2013-01-28 02:29:00,
2013-01-27 20:30:00,28.9,22.3,29.65,SE,135,6.7,6.7,76,0.00,,,0.00,VWS V14.01,2013-01-28 02:30:00,
2013-01-27 20:31:00,29.5,21.9,29.62,SE,135,0.0,1.6,73,0.00,,,0.00,VWS V14.01,2013-01-28 02:31:00,
2013-01-27 20:32:00,28.9,22.3,29.65,SE,135,0.0,0.9,76,0.00,,,0.00,VWS V14.01,2013-01-28 02:32:00,
2013-01-27 20:33:00,29.5,21.9,29.62,SE,135,0.0,1.6,73,0.00,,,0.00,VWS V14.01,2013-01-28 02:33:00,
2013-01-27 20:34:00,28.9,22.3,29.65,ESE,112,6.0,6.0,76,0.00,,,0.00,VWS V14.01,2013-01-28 02:34:00,
2013-01-27 20:35:00,29.5,21.9,29.62,SE,135,0.0,1.6,73,0.00,,,0.00,VWS V14.01,2013-01-28 02:35:00,
2013-01-27 20:36:00,28.8,22.2,29.65,SSE,158,0.0,2.5,76,0.00,,,0.00,VWS V14.01,2013-01-28 02:36:00,
2013-01-27 20:37:00,29.5,21.9,29.62,East,90,0.0,1.3,73,0.00,,,0.00,VWS V14.01,2013-01-28 02:37:00,
2013-01-27 20:38:00,28.8,22.2,29.65,ESE,112,6.7,6.7,76,0.00,,,0.00,VWS V14.01,2013-01-28 02:38:00,
2013-01-27 20:39:00,29.5,21.9,29.62,East,90,0.0,1.1,73,0.00,,,0.00,VWS V14.01,2013-01-28 02:39:00,
2013-01-27 20:40:00,28.8,22.2,29.65,ESE,112,4.7,4.7,76,0.00,,,0.00,VWS V14.01,2013-01-28 02:40:00,
2013-01-27 20:41:00,29.5,22.2,29.62,East,90,0.0,0.0,74,0.00,,,0.00,VWS V14.01,2013-01-28 02:41:00,
2013-01-27 20:42:00,28.8,22.2,29.65,SSE,158,4.0,4.0,76,0.00,,,0.00,VWS V14.01,2013-01-28 02:42:00,
2013-01-27 20:43:00,29.5,22.2,29.62,ESE,112,0.0,0.0,74,0.00,,,0.00,VWS V14.01,2013-01-28 02:43:00,
2013-01-27 20:44:00,29.3,22.1,29.65,ESE,112,0.0,0.9,74,0.00,,,0.00,VWS V14.01,2013-01-28 02:44:00,
2013-01-27 20:45:00,29.5,22.2,29.62,ESE,112,0.0,0.0,74,0.00,,,0.00,VWS V14.01,2013-01-28 02:45:00,
2013-01-27 20:46:00,29.5,22.2,29.65,ESE,112,0.0,0.0,74,0.00,,,0.00,VWS V14.01,2013-01-28 02:46:00,
2013-01-27 20:48:00,29.5,22.5,29.62,SSE,158,0.0,2.5,75,0.00,,,0.00,VWS V14.01,2013-01-28 02:48:00,
2013-01-27 20:49:00,29.3,22.4,29.65,NNE,22,4.0,4.0,75,0.00,,,0.00,VWS V14.01,2013-01-28 02:49:00,
2013-01-27 20:50:00,29.3,22.4,29.65,West,270,0.0,1.1,75,0.00,,,0.00,VWS V14.01,2013-01-28 02:50:00,
2013-01-27 20:52:00,29.3,22.1,29.65,East,90,0.0,1.3,74,0.00,,,0.00,VWS V14.01,2013-01-28 02:52:00,
2013-01-27 20:54:00,29.3,22.4,29.65,ESE,112,3.4,3.4,75,0.00,,,0.00,VWS V14.01,2013-01-28 02:54:00,
2013-01-27 20:56:00,29.3,22.1,29.65,ESE,112,6.7,6.7,74,0.00,,,0.00,VWS V14.01,2013-01-28 02:56:00,
2013-01-27 20:58:00,29.3,22.4,29.65,SE,135,0.0,1.1,75,0.00,,,0.00,VWS V14.01,2013-01-28 02:58:00,
2013-01-27 20:59:00,29.1,22.2,29.65,ENE,68,6.7,6.7,75,0.00,,,0.00,VWS V14.01,2013-01-28 02:59:00,
2013-01-27 21:00:00,29.3,22.4,29.65,East,90,4.0,4.0,75,0.00,,,0.00,VWS V14.01,2013-01-28 03:00:00,
2013-01-27 21:02:00,29.3,22.4,29.65,ESE,112,6.0,6.0,75,0.00,,,0.00,VWS V14.01,2013-01-28 03:02:00,
2013-01-27 21:04:00,29.1,22.5,29.65,SSE,158,2.7,2.7,76,0.00,,,0.00,VWS V14.01,2013-01-28 03:04:00,
2013-01-27 21:06:00,29.3,22.4,29.65,SSE,158,4.7,4.7,75,0.00,,,0.00,VWS V14.01,2013-01-28 03:06:00,
2013-01-27 21:08:00,29.3,22.4,29.65,ESE,112,7.4,7.4,75,0.00,,,0.00,VWS V14.01,2013-01-28 03:08:00,
2013-01-27 21:09:00,29.1,22.5,29.65,East,90,2.7,2.7,76,0.00,,,0.00,VWS V14.01,2013-01-28 03:09:00,
2013-01-27 21:10:00,29.1,22.2,29.65,NW,315,0.0,1.1,75,0.00,,,0.00,VWS V14.01,2013-01-28 03:10:00,
2013-01-27 21:12:00,29.1,22.2,29.65,ESE,112,6.7,6.7,75,0.00,,,0.00,VWS V14.01,2013-01-28 03:12:00,
2013-01-27 21:14:00,28.9,22.3,29.65,ESE,112,0.0,1.6,76,0.00,,,0.00,VWS V14.01,2013-01-28 03:14:00,
2013-01-27 21:16:00,29.1,22.5,29.65,SSE,158,0.0,1.6,76,0.00,,,0.00,VWS V14.01,2013-01-28 03:16:00,
2013-01-27 21:18:00,29.1,22.5,29.65,SE,135,0.0,2.0,76,0.00,,,0.00,VWS V14.01,2013-01-28 03:18:00,
2013-01-27 21:19:00,28.9,22.3,29.65,SE,135,0.0,2.2,76,0.00,,,0.00,VWS V14.01,2013-01-28 03:19:00,
2013-01-27 21:20:00,29.1,22.5,29.65,East,90,2.7,2.7,76,0.00,,,0.00,VWS V14.01,2013-01-28 03:20:00,
2013-01-27 21:22:00,28.9,22.3,29.65,ESE,112,4.0,4.0,76,0.00,,,0.00,VWS V14.01,2013-01-28 03:22:00,
2013-01-27 21:24:00,28.9,22.3,29.65,ESE,112,2.7,2.7,76,0.00,,,0.00,VWS V14.01,2013-01-28 03:24:00,
2013-01-27 21:26:00,28.9,22.3,29.65,ESE,112,2.7,2.7,76,0.00,,,0.00,VWS V14.01,2013-01-28 03:26:00,
2013-01-27 21:28:00,28.9,22.3,29.65,East,90,4.0,4.0,76,0.00,,,0.00,VWS V14.01,2013-01-28 03:28:00,
2013-01-27 21:29:00,28.8,22.2,29.65,ENE,68,0.0,2.2,76,0.00,,,0.00,VWS V14.01,2013-01-28 03:29:00,
2013-01-27 21:30:00,28.9,22.3,29.65,SE,135,6.7,6.7,76,0.00,,,0.00,VWS V14.01,2013-01-28 03:30:00,
2013-01-27 21:32:00,28.9,22.3,29.65,SE,135,0.0,0.9,76,0.00,,,0.00,VWS V14.01,2013-01-28 03:32:00,
2013-01-27 21:34:00,28.8,22.2,29.65,SSE,158,0.0,1.3,76,0.00,,,0.00,VWS V14.01,2013-01-28 03:34:00,
2013-01-27 21:36:00,28.8,22.2,29.65,SSE,158,0.0,2.5,76,0.00,,,0.00,VWS V14.01,2013-01-28 03:36:00,
2013-01-27 21:37:00,28.4,22.1,29.62,NW,315,4.0,4.0,77,0.00,,,0.00,VWS V14.01,2013-01-28 03:37:00,
2013-01-27 21:38:00,28.8,22.2,29.65,ESE,112,6.7,6.7,76,0.00,,,0.00,VWS V14.01,2013-01-28 03:38:00,
2013-01-27 21:39:00,28.8,22.2,29.65,ESE,112,0.0,0.0,76,0.00,,,0.00,VWS V14.01,2013-01-28 03:39:00,
2013-01-27 21:40:00,28.8,22.2,29.65,ESE,112,4.7,4.7,76,0.00,,,0.00,VWS V14.01,2013-01-28 03:40:00,
2013-01-27 21:41:00,28.4,22.1,29.62,NW,315,0.0,1.3,77,0.00,,,0.00,VWS V14.01,2013-01-28 03:41:00,
2013-01-27 21:42:00,28.8,22.2,29.65,SSE,158,4.0,4.0,76,0.00,,,0.00,VWS V14.01,2013-01-28 03:42:00,
2013-01-27 21:43:00,28.4,22.1,29.62,ESE,112,9.4,9.4,77,0.00,,,0.00,VWS V14.01,2013-01-28 03:43:00,
2013-01-27 21:44:00,28.6,22.0,29.65,SE,135,0.0,0.9,76,0.00,,,0.00,VWS V14.01,2013-01-28 03:44:00,
2013-01-27 21:45:00,28.4,22.1,29.62,ENE,68,0.0,3.1,77,0.00,,,0.00,VWS V14.01,2013-01-28 03:45:00,
2013-01-27 21:46:00,28.8,22.2,29.65,ENE,68,2.7,2.7,76,0.00,,,0.00,VWS V14.01,2013-01-28 03:46:00,
2013-01-27 21:47:00,28.4,22.1,29.62,ESE,112,2.7,3.1,77,0.00,,,0.00,VWS V14.01,2013-01-28 03:47:00,
2013-01-27 21:48:00,28.8,22.2,29.65,ENE,68,2.7,2.7,76,0.00,,,0.00,VWS V14.01,2013-01-28 03:48:00,
2013-01-27 21:49:00,28.6,22.0,29.65,NE,45,3.4,3.4,76,0.00,,,0.00,VWS V14.01,2013-01-28 03:49:00,
2013-01-27 21:50:00,28.8,22.2,29.65,ESE,112,0.0,0.9,76,0.00,,,0.00,VWS V14.01,2013-01-28 03:50:00,
2013-01-27 21:51:00,28.4,22.1,29.59,ESE,112,0.0,3.1,77,0.00,,,0.00,VWS V14.01,2013-01-28 03:51:00,
2013-01-27 21:52:00,28.6,22.0,29.65,SE,135,4.0,4.0,76,0.00,,,0.00,VWS V14.01,2013-01-28 03:52:00,
2013-01-27 21:53:00,28.4,22.1,29.59,ESE,112,0.0,3.1,77,0.00,,,0.00,VWS V14.01,2013-01-28 03:53:00,
2013-01-27 21:54:00,28.6,22.0,29.62,SE,135,4.0,4.0,76,0.00,,,0.00,VWS V14.01,2013-01-28 03:54:00,
2013-01-27 21:55:00,28.4,22.1,29.59,SE,135,4.7,4.7,77,0.00,,,0.00,VWS V14.01,2013-01-28 03:55:00,
2013-01-27 21:56:00,28.6,22.0,29.65,WNW,292,0.0,0.0,76,0.00,,,0.00,VWS V14.01,2013-01-28 03:56:00,
2013-01-27 21:58:00,28.6,22.0,29.65,NNW,338,6.0,6.0,76,0.00,,,0.00,VWS V14.01,2013-01-28 03:58:00,
2013-01-27 21:59:00,28.6,22.0,29.62,NNE,22,4.0,4.0,76,0.00,,,0.00,VWS V14.01,2013-01-28 03:59:00,
2013-01-27 22:00:00,28.6,22.0,29.65,SSE,158,6.0,6.0,76,0.00,,,0.00,VWS V14.01,2013-01-28 04:00:00,
2013-01-27 22:01:00,28.4,22.1,29.59,SE,135,0.0,3.1,77,0.00,,,0.00,VWS V14.01,2013-01-28 04:01:00,
2013-01-27 22:02:00,28.6,22.0,29.65,SE,135,0.0,0.9,76,0.00,,,0.00,VWS V14.01,2013-01-28 04:02:00,
2013-01-27 22:03:00,28.4,22.1,29.59,SE,135,0.0,3.1,77,0.00,,,0.00,VWS V14.01,2013-01-28 04:03:00,
2013-01-27 22:04:00,28.6,22.0,29.62,ESE,112,3.4,3.4,76,0.00,,,0.00,VWS V14.01,2013-01-28 04:04:00,
2013-01-27 22:06:00,28.6,22.0,29.62,SE,135,2.7,2.7,76,0.00,,,0.00,VWS V14.01,2013-01-28 04:06:00,
2013-01-27 22:07:00,28.2,22.0,29.62,South,180,0.0,3.1,77,0.00,,,0.00,VWS V14.01,2013-01-28 04:07:00,
2013-01-27 22:08:00,28.6,22.0,29.62,East,90,8.1,8.1,76,0.00,,,0.00,VWS V14.01,2013-01-28 04:08:00,
2013-01-27 22:09:00,28.4,22.1,29.62,SSE,158,0.0,0.0,77,0.00,,,0.00,VWS V14.01,2013-01-28 04:09:00,
2013-01-27 22:10:00,28.6,22.0,29.62,North,0,8.1,8.1,76,0.00,,,0.00,VWS V14.01,2013-01-28 04:10:00,
2013-01-27 22:12:00,28.6,22.0,29.62,NE,45,4.0,4.0,76,0.00,,,0.00,VWS V14.01,2013-01-28 04:12:00,
2013-01-27 22:13:00,28.2,22.0,29.62,SE,135,0.0,3.1,77,0.00,,,0.00,VWS V14.01,2013-01-28 04:13:00,
2013-01-27 22:14:00,28.4,22.1,29.62,WNW,292,0.0,0.0,77,0.00,,,0.00,VWS V14.01,2013-01-28 04:14:00,
2013-01-27 22:15:00,28.2,22.0,29.62,SE,135,0.0,3.1,77,0.00,,,0.00,VWS V14.01,2013-01-28 04:15:00,
2013-01-27 22:16:00,28.6,22.0,29.62,ESE,112,0.0,2.0,76,0.00,,,0.00,VWS V14.01,2013-01-28 04:16:00,
2013-01-27 22:18:00,28.6,22.0,29.62,SSE,158,0.0,1.3,76,0.00,,,0.00,VWS V14.01,2013-01-28 04:18:00,
2013-01-27 22:19:00,28.4,22.1,29.62,NW,315,0.0,0.0,77,0.00,,,0.00,VWS V14.01,2013-01-28 04:19:00,
2013-01-27 22:20:00,28.4,22.1,29.62,SSE,158,0.0,0.0,77,0.00,,,0.00,VWS V14.01,2013-01-28 04:20:00,
2013-01-27 22:21:00,28.2,22.0,29.62,ESE,112,0.0,3.1,77,0.00,,,0.00,VWS V14.01,2013-01-28 04:21:00,
2013-01-27 22:22:00,28.4,22.1,29.62,ESE,112,4.7,4.7,77,0.00,,,0.00,VWS V14.01,2013-01-28 04:22:00,
2013-01-27 22:23:00,28.2,22.0,29.62,SE,135,0.0,3.1,77,0.00,,,0.00,VWS V14.01,2013-01-28 04:23:00,
2013-01-27 22:24:00,28.4,22.1,29.62,NW,315,2.7,2.7,77,0.00,,,0.00,VWS V14.01,2013-01-28 04:24:00,
2013-01-27 22:25:00,28.2,22.0,29.62,ESE,112,0.0,3.1,77,0.00,,,0.00,VWS V14.01,2013-01-28 04:25:00,
2013-01-27 22:26:00,28.4,22.1,29.62,NW,315,0.0,0.0,77,0.00,,,0.00,VWS V14.01,2013-01-28 04:26:00,
2013-01-27 22:27:00,28.2,22.0,29.62,NNE,22,0.0,3.1,77,0.00,,,0.00,VWS V14.01,2013-01-28 04:27:00,
2013-01-27 22:28:00,28.4,22.1,29.62,NW,315,3.4,3.4,77,0.00,,,0.00,VWS V14.01,2013-01-28 04:28:00,
2013-01-27 22:29:00,28.2,22.0,29.62,East,90,2.7,3.1,77,0.00,,,0.00,VWS V14.01,2013-01-28 04:29:00,
2013-01-27 22:30:00,28.4,22.1,29.62,NW,315,0.0,0.0,77,0.00,,,0.00,VWS V14.01,2013-01-28 04:30:00,
2013-01-27 22:31:00,28.2,22.0,29.62,ESE,112,0.0,1.6,77,0.00,,,0.00,VWS V14.01,2013-01-28 04:31:00,
2013-01-27 22:32:00,28.4,22.1,29.62,NW,315,0.0,0.0,77,0.00,,,0.00,VWS V14.01,2013-01-28 04:32:00,
2013-01-27 22:33:00,28.2,22.0,29.62,East,90,0.0,1.6,77,0.00,,,0.00,VWS V14.01,2013-01-28 04:33:00,
2013-01-27 22:34:00,28.4,22.1,29.62,NW,315,0.0,0.0,77,0.00,,,0.00,VWS V14.01,2013-01-28 04:34:00,
2013-01-27 22:37:00,28.4,22.1,29.62,NW,315,4.0,4.0,77,0.00,,,0.00,VWS V14.01,2013-01-28 04:37:00,
2013-01-27 22:39:00,28.4,22.1,29.62,NW,315,3.4,3.4,77,0.00,,,0.00,VWS V14.01,2013-01-28 04:39:00,
2013-01-27 22:41:00,28.4,22.1,29.62,NW,315,0.0,1.3,77,0.00,,,0.00,VWS V14.01,2013-01-28 04:41:00,
2013-01-27 22:43:00,28.4,22.1,29.62,ESE,112,9.4,9.4,77,0.00,,,0.00,VWS V14.01,2013-01-28 04:43:00,
2013-01-27 22:45:00,28.4,22.1,29.62,ENE,68,0.0,3.1,77,0.00,,,0.00,VWS V14.01,2013-01-28 04:45:00,
2013-01-27 22:47:00,28.4,22.1,29.62,ESE,112,2.7,3.1,77,0.00,,,0.00,VWS V14.01,2013-01-28 04:47:00,
2013-01-27 22:49:00,28.4,22.1,29.59,SSE,158,3.4,3.4,77,0.00,,,0.00,VWS V14.01,2013-01-28 04:49:00,
2013-01-27 22:51:00,28.4,22.1,29.59,ESE,112,0.0,3.1,77,0.00,,,0.00,VWS V14.01,2013-01-28 04:51:00,
2013-01-27 22:53:00,28.4,22.1,29.59,ESE,112,0.0,3.1,77,0.00,,,0.00,VWS V14.01,2013-01-28 04:53:00,
2013-01-27 22:55:00,28.4,22.1,29.59,SE,135,4.7,4.7,77,0.00,,,0.00,VWS V14.01,2013-01-28 04:55:00,
2013-01-27 22:57:00,28.2,21.6,29.62,ESE,112,3.4,3.4,76,0.00,,,0.00,VWS V14.01,2013-01-28 04:57:00,
2013-01-27 22:59:00,28.4,22.1,29.59,SE,135,0.0,3.1,77,0.00,,,0.00,VWS V14.01,2013-01-28 04:59:00,
2013-01-27 23:01:00,28.4,22.1,29.59,SE,135,0.0,3.1,77,0.00,,,0.00,VWS V14.01,2013-01-28 05:01:00,
2013-01-27 23:03:00,28.4,22.1,29.59,SE,135,0.0,3.1,77,0.00,,,0.00,VWS V14.01,2013-01-28 05:03:00,
2013-01-27 23:05:00,28.2,22.0,29.62,ESE,112,0.0,1.3,77,0.00,,,0.00,VWS V14.01,2013-01-28 05:05:00,
2013-01-27 23:07:00,28.2,22.0,29.62,South,180,0.0,3.1,77,0.00,,,0.00,VWS V14.01,2013-01-28 05:07:00,
2013-01-27 23:09:00,28.2,22.0,29.62,SSE,158,0.0,3.1,77,0.00,,,0.00,VWS V14.01,2013-01-28 05:09:00,
2013-01-27 23:11:00,28.0,21.8,29.62,ESE,112,0.0,1.6,77,0.00,,,0.00,VWS V14.01,2013-01-28 05:11:00,
2013-01-27 23:13:00,28.2,22.0,29.62,SE,135,0.0,3.1,77,0.00,,,0.00,VWS V14.01,2013-01-28 05:13:00,
2013-01-27 23:15:00,28.2,22.0,29.62,SE,135,0.0,3.1,77,0.00,,,0.00,VWS V14.01,2013-01-28 05:15:00,
2013-01-27 23:17:00,27.9,21.6,29.62,ESE,112,0.0,1.6,77,0.00,,,0.00,VWS V14.01,2013-01-28 05:17:00,
2013-01-27 23:19:00,28.2,22.0,29.62,ENE,68,0.0,3.1,77,0.00,,,0.00,VWS V14.01,2013-01-28 05:19:00,
2013-01-27 23:21:00,28.2,22.0,29.62,ESE,112,0.0,3.1,77,0.00,,,0.00,VWS V14.01,2013-01-28 05:21:00,
2013-01-27 23:23:00,28.2,22.0,29.62,SE,135,0.0,3.1,77,0.00,,,0.00,VWS V14.01,2013-01-28 05:23:00,
2013-01-27 23:25:00,28.2,22.0,29.62,ESE,112,0.0,3.1,77,0.00,,,0.00,VWS V14.01,2013-01-28 05:25:00,
2013-01-27 23:27:00,28.2,22.0,29.62,NNE,22,0.0,3.1,77,0.00,,,0.00,VWS V14.01,2013-01-28 05:27:00,
2013-01-27 23:29:00,28.2,22.0,29.62,East,90,2.7,3.1,77,0.00,,,0.00,VWS V14.01,2013-01-28 05:29:00,
2013-01-27 23:31:00,28.2,22.0,29.62,ESE,112,0.0,1.6,77,0.00,,,0.00,VWS V14.01,2013-01-28 05:31:00,
2013-01-27 23:33:00,28.2,22.0,29.62,East,90,0.0,1.6,77,0.00,,,0.00,VWS V14.01,2013-01-28 05:33:00,
2013-01-27 23:35:00,27.9,21.9,29.65,ESE,112,0.0,1.6,78,0.00,,,0.00,VWS V14.01,2013-01-28 05:35:00,
2013-01-27 23:37:00,28.2,22.0,29.62,ESE,112,0.0,1.6,77,0.00,,,0.00,VWS V14.01,2013-01-28 05:37:00,
2013-01-27 23:39:00,28.2,22.0,29.62,ESE,112,0.0,1.6,77,0.00,,,0.00,VWS V14.01,2013-01-28 05:39:00,
2013-01-27 23:41:00,27.9,21.9,29.65,ESE,112,0.0,1.6,78,0.00,,,0.00,VWS V14.01,2013-01-28 05:41:00,
2013-01-27 23:43:00,28.2,22.0,29.62,ESE,112,0.0,1.6,77,0.00,,,0.00,VWS V14.01,2013-01-28 05:43:00,
2013-01-27 23:45:00,28.2,22.0,29.62,ESE,112,0.0,1.6,77,0.00,,,0.00,VWS V14.01,2013-01-28 05:45:00,
2013-01-27 23:47:00,28.2,22.0,29.62,ESE,112,0.0,0.9,77,0.00,,,0.00,VWS V14.01,2013-01-28 05:47:00,
2013-01-27 23:49:00,28.2,22.0,29.62,ESE,112,0.0,0.9,77,0.00,,,0.00,VWS V14.01,2013-01-28 05:49:00,
2013-01-27 23:51:00,28.2,22.0,29.62,ESE,112,4.0,4.0,77,0.00,,,0.00,VWS V14.01,2013-01-28 05:51:00,
2013-01-27 23:53:00,28.2,22.0,29.62,ESE,112,0.0,1.3,77,0.00,,,0.00,VWS V14.01,2013-01-28 05:53:00,
2013-01-27 23:55:00,28.2,22.0,29.62,ESE,112,3.4,3.4,77,0.00,,,0.00,VWS V14.01,2013-01-28 05:55:00,
2013-01-27 23:57:00,28.2,21.6,29.62,ESE,112,3.4,3.4,76,0.00,,,0.00,VWS V14.01,2013-01-28 05:57:00,
2013-01-27 23:59:00,28.2,22.0,29.62,ESE,112,0.0,1.3,77,0.00,,,0.00,VWS V14.01,2013-01-28 05:59:00,